GFSSGP_250_spd_057.txt.gz
Wind_Speed
74 68 71 66 62 58 55 55 53 49 49 47 45 46 43 38 39 49 40 41 41 40 37 35 35 35 33 32 32 32 30 30 28 25 25 25 26 28 30 29 35 36 37 39 42 42 42 44 48
78 79 74 73 68 66 64 63 59 57 54 47 48 50 50 49 49 46 42 44 41 42 41 40 38 38 37 37 35 33 32 31 30 28 29 29 28 32 32 34 34 36 37 41 41 42 44 46 49
78 81 79 73 67 67 70 70 64 61 56 58 56 54 54 51 41 47 49 47 46 46 44 42 40 40 40 39 37 36 35 33 31 31 30 30 32 33 33 34 35 39 41 43 43 45 47 46 49
82 79 79 79 74 73 73 65 68 67 65 63 61 59 58 51 53 55 54 50 50 48 46 46 45 43 42 41 38 36 34 34 34 35 36 34 34 35 37 38 41 41 43 43 44 45 43 46 48
87 85 82 80 78 76 73 72 73 71 71 69 67 66 61 55 53 56 59 55 53 49 46 48 48 45 44 41 40 39 38 37 39 39 39 38 36 38 40 42 45 45 46 47 46 47 49 50 48
95 85 85 79 81 78 76 74 78 78 76 74 73 72 69 58 58 60 61 60 58 55 51 50 48 47 45 43 43 42 42 41 41 42 43 41 40 40 42 44 47 48 48 50 47 50 50 51 52
94 91 87 83 87 83 81 74 81 82 81 80 77 72 74 65 67 67 64 64 61 60 58 54 52 50 48 48 47 47 47 46 45 46 46 44 44 44 45 48 50 49 51 52 48 52 50 49 50
97 98 90 82 87 85 85 85 80 87 84 81 76 81 78 68 74 72 68 67 66 64 63 60 59 56 54 54 53 52 51 51 51 50 49 46 46 47 48 49 49 51 53 53 51 53 51 52 47
93 96 90 93 91 92 91 92 87 88 87 86 85 85 80 80 79 74 73 73 71 71 68 65 64 62 61 59 58 56 55 56 56 55 52 51 51 52 52 51 53 53 54 52 52 54 54 54 47
90 92 92 96 93 97 97 99 91 91 89 92 90 90 86 87 83 82 79 78 74 72 71 70 70 67 66 64 63 62 62 61 59 57 56 54 52 53 54 55 54 53 52 53 55 55 52 53 50
87 86 91 95 98 100 99 98 95 93 88 97 99 94 89 87 91 89 87 81 77 75 74 72 71 70 70 68 68 66 67 64 61 60 59 58 58 57 58 58 57 55 51 54 56 54 53 55 54
83 85 89 93 98 99 97 100 101 98 99 96 99 98 95 92 94 92 90 87 82 80 79 77 76 73 72 70 72 69 69 68 66 65 63 61 62 62 62 62 61 60 59 58 58 56 57 57 59
80 87 88 88 93 96 101 104 103 99 100 107 99 103 100 99 95 96 91 90 89 86 87 85 81 79 77 74 75 76 75 74 72 70 69 66 65 65 63 63 63 62 61 58 60 59 60 59 61
82 82 84 89 92 93 96 104 108 100 107 107 101 103 103 106 102 97 94 95 92 89 90 92 87 84 82 79 79 77 78 78 75 73 72 69 69 68 66 62 63 62 62 65 62 58 60 59 59
84 86 85 84 88 92 96 96 98 110 113 108 106 111 105 108 110 106 101 94 96 94 94 92 90 89 87 84 80 82 81 78 77 77 75 70 70 68 61 57 60 64 63 62 59 59 61 60 59
86 87 87 88 89 87 93 92 98 105 108 109 112 113 110 108 112 113 110 104 98 97 92 88 84 92 91 90 89 89 85 83 81 80 78 74 72 70 67 65 66 65 63 62 67 68 66 65 53
84 86 90 94 88 92 91 91 97 93 99 105 114 115 112 115 114 112 113 113 109 104 100 87 75 76 79 86 86 88 89 82 81 85 86 78 78 75 67 71 71 68 63 66 66 65 66 55 58
88 84 87 88 91 94 93 94 96 90 98 100 104 108 113 115 114 114 115 112 112 112 108 104 84 78 77 80 80 81 75 78 76 72 74 73 78 78 72 70 70 67 64 62 62 63 55 55 66
81 86 88 88 92 86 94 92 95 95 97 98 101 104 110 115 116 117 115 111 115 113 112 111 103 90 81 76 74 77 72 67 66 66 66 67 72 78 78 76 72 70 66 58 63 50 53 62 72
80 83 86 91 90 86 90 92 94 96 98 101 100 101 104 107 110 110 117 117 113 113 113 112 109 104 100 90 75 68 79 68 64 71 66 65 63 71 79 72 71 65 57 61 56 54 62 70 73
76 79 82 87 89 89 93 92 95 98 96 98 100 101 101 102 104 106 107 113 113 114 110 113 112 111 108 102 84 65 74 75 76 68 77 67 69 74 67 65 61 60 55 56 52 62 69 73 81
70 74 75 79 84 89 92 92 95 98 100 101 101 102 101 99 101 104 108 108 106 104 106 108 113 112 112 104 100 99 93 68 66 65 63 70 77 59 58 68 64 64 67 55 68 77 78 82 86
63 66 67 74 76 82 87 92 97 99 100 102 102 102 102 102 102 103 105 106 106 105 106 107 106 107 108 108 106 103 93 89 77 57 54 79 49 59 65 59 75 68 65 68 84 81 80 85 77
63 63 64 67 73 74 76 86 88 98 100 101 100 102 100 99 100 102 104 106 108 110 109 108 104 106 108 108 109 110 103 89 86 79 64 74 67 52 39 69 64 64 78 89 91 83 83 74 75
67 67 64 66 68 65 76 75 80 88 90 97 99 99 100 100 99 100 103 104 105 111 111 111 111 109 111 108 109 109 108 108 101 97 95 102 85 74 84 90 86 89 96 96 91 85 77 80 74
66 69 70 69 68 66 77 68 75 80 82 88 93 95 96 99 102 102 103 104 103 106 111 113 116 116 114 111 111 107 110 113 111 109 106 104 100 89 80 85 95 92 96 92 87 81 80 72 72
65 69 71 72 71 70 69 67 72 74 82 84 88 89 94 95 98 104 105 105 108 104 99 98 111 116 119 119 114 112 108 97 102 104 106 102 100 96 95 93 88 89 89 89 83 77 74 67 76
58 65 71 72 73 74 71 72 73 82 81 84 85 86 88 92 95 99 104 108 108 109 109 113 105 110 118 121 119 113 110 109 100 95 93 94 92 91 91 91 90 85 84 79 77 75 70 82 85
55 59 64 71 72 75 74 76 81 82 84 81 86 88 90 91 93 97 102 106 109 110 113 114 117 114 107 109 115 115 113 115 103 95 88 91 89 89 87 82 78 78 77 74 72 78 85 89 90
51 55 60 63 68 73 76 74 81 85 84 84 87 87 91 90 93 96 98 103 105 106 107 112 116 124 117 108 109 109 109 108 107 105 97 95 91 87 87 83 79 76 73 78 81 88 88 89 95

GFSSGP_250_spd_060.txt.gz
Wind_Speed
71 65 65 61 57 53 53 53 51 55 47 45 45 44 36 41 43 39 41 40 40 37 36 33 33 33 32 30 30 29 30 31 31 31 30 26 25 24 25 27 29 30 33 37 38 42 44 46 48
77 74 79 68 64 61 62 62 59 58 48 52 49 43 43 50 45 44 46 38 46 45 42 40 38 39 37 35 34 33 33 33 34 31 31 30 28 27 27 29 31 33 38 38 39 44 47 48 50
81 79 79 78 67 63 71 73 65 58 50 54 53 54 55 51 43 39 39 45 50 47 48 49 46 43 40 38 37 37 37 37 36 33 33 32 30 30 30 31 33 36 40 43 44 46 50 51 53
92 89 86 80 74 76 77 77 67 59 54 58 60 63 59 51 47 43 52 52 54 51 51 51 48 46 43 42 40 39 39 39 37 36 35 34 34 34 33 34 35 38 40 44 47 48 48 52 53
95 97 95 88 78 80 79 76 76 72 70 69 69 69 70 58 55 56 54 52 51 50 52 53 51 48 46 45 44 42 43 41 38 36 36 36 37 37 37 38 37 40 43 44 47 48 51 54 54
95 100 97 90 88 85 87 81 81 79 83 82 77 75 72 63 60 63 61 59 57 54 51 51 53 51 50 47 46 44 45 43 41 38 39 40 41 41 41 41 41 42 44 47 48 50 52 55 56
105 102 100 97 99 96 94 85 84 83 81 80 80 78 78 64 65 69 68 65 61 59 56 52 53 53 51 49 46 46 48 46 45 42 42 42 43 45 45 44 44 45 48 48 48 50 51 56 56
103 106 106 106 107 101 95 91 87 87 84 85 80 81 77 65 70 74 72 73 70 64 61 57 57 54 53 51 51 51 49 48 47 46 46 47 46 49 48 48 48 48 49 49 51 52 53 55 57
101 104 102 104 107 103 95 97 93 90 92 88 85 81 83 69 76 78 77 76 76 72 68 66 62 60 56 55 55 53 53 53 53 52 51 50 50 52 53 52 51 50 51 52 53 54 55 57 55
97 95 93 100 102 103 104 100 100 98 94 90 91 84 83 83 81 84 84 81 81 77 73 71 67 67 63 61 60 58 57 58 57 56 57 55 54 53 54 54 54 54 54 56 54 55 56 51 55
89 89 91 95 100 102 104 104 102 104 98 91 95 95 90 87 75 88 86 86 82 79 76 74 75 73 71 67 67 64 64 64 64 63 61 60 56 55 56 58 56 58 60 59 58 57 51 54 57
86 85 89 92 96 98 98 103 105 105 97 94 101 93 85 84 82 92 95 89 83 85 79 77 79 76 76 72 74 70 68 70 70 68 67 63 59 57 58 61 60 61 61 61 60 51 54 56 55
83 84 87 89 92 96 100 99 102 102 99 99 100 93 91 89 96 99 96 89 91 90 84 76 78 81 80 74 76 73 73 73 72 68 66 65 63 64 64 65 64 65 64 59 49 53 60 58 57
85 85 86 87 88 92 95 96 104 98 104 104 101 99 100 100 97 99 102 99 95 95 94 90 85 84 84 79 72 78 75 75 75 73 70 69 68 68 69 67 67 66 64 60 61 59 59 59 60
82 82 85 86 90 90 95 93 90 98 106 105 109 102 108 103 105 98 103 106 105 99 95 93 90 89 88 84 80 76 78 78 77 76 76 73 73 72 71 68 68 68 67 65 65 62 64 64 65
84 85 83 84 90 91 96 85 89 97 102 102 103 103 108 106 110 105 102 107 108 106 102 97 95 92 90 89 84 86 84 83 80 79 79 78 75 74 76 70 71 72 73 74 70 68 67 68 64
88 87 88 90 91 91 91 82 91 97 97 95 94 100 107 112 112 115 109 105 104 106 109 105 99 94 88 88 86 79 86 82 74 70 72 71 75 74 69 65 72 69 64 69 68 70 72 69 64
89 89 92 91 95 93 89 85 90 94 93 91 97 97 101 104 111 119 115 108 108 109 109 110 109 102 97 90 82 76 72 68 73 67 61 65 65 64 69 68 62 64 65 64 64 76 78 77 67
89 90 87 88 95 94 90 89 93 96 93 91 95 96 99 100 105 114 120 109 107 110 113 111 109 111 108 100 95 82 76 77 68 64 61 59 60 62 62 58 61 62 59 58 72 70 66 62 64
85 89 91 93 95 95 89 88 94 95 96 95 97 96 97 98 102 106 110 113 109 112 113 112 108 109 112 110 103 104 100 83 77 72 64 59 58 57 62 63 59 58 65 67 68 61 62 65 59
85 88 89 91 94 93 89 86 92 98 99 100 98 98 100 98 99 101 103 103 107 113 115 114 112 109 107 109 110 108 103 84 76 82 80 67 64 64 61 62 60 55 73 75 61 59 68 55 49
77 81 86 87 89 87 91 88 91 96 97 97 100 102 103 102 101 98 97 102 101 106 114 115 114 114 112 108 106 108 102 94 84 87 73 69 65 57 58 63 55 75 61 53 57 63 65 55 49
75 78 79 79 81 85 85 91 86 94 97 99 100 100 101 103 102 101 101 99 99 102 103 108 115 114 116 110 107 102 98 93 87 82 78 69 64 64 65 55 55 53 45 51 60 62 58 59 48
74 75 75 76 78 81 77 86 82 89 99 99 98 98 97 101 103 103 102 102 105 103 103 104 105 107 108 111 105 103 102 98 88 84 78 73 70 69 58 62 56 48 46 44 46 47 48 61 52
68 73 76 79 77 71 74 83 78 87 91 94 92 94 100 101 103 104 103 104 104 102 104 103 102 104 103 105 106 106 106 105 95 84 85 80 83 75 77 67 43 50 47 40 33 36 37 48 57
60 67 74 79 81 76 76 76 76 82 85 88 85 88 97 101 104 104 106 104 104 102 103 103 101 102 102 102 103 103 103 104 102 97 94 96 92 85 77 69 60 57 56 50 64 53 76 85 98
53 62 69 77 78 79 75 75 79 72 76 78 82 88 91 96 101 105 106 105 106 106 104 104 105 104 104 104 104 105 104 101 101 99 100 98 91 91 82 80 70 81 74 69 93 94 94 94 94
47 59 66 70 72 78 75 77 77 79 78 80 82 84 86 90 94 99 102 105 108 107 106 106 107 107 107 106 104 104 105 102 103 99 98 98 95 98 94 92 92 89 89 91 88 89 93 98 95
42 52 59 67 68 73 76 77 81 79 82 80 82 86 82 86 89 92 97 100 102 106 108 108 106 107 106 107 107 107 106 104 104 102 101 99 98 102 99 96 97 93 100 105 101 98 95 84 86
46 44 55 58 61 67 71 73 78 79 81 84 85 88 82 85 86 89 91 95 97 100 104 108 109 109 109 110 108 107 107 107 106 106 106 102 101 102 98 96 97 104 96 94 93 85 82 80 79

GFSSGP_250_spd_063.txt.gz
Wind_Speed
76 73 65 56 57 56 56 56 56 53 50 46 48 44 38 34 33 35 41 38 37 38 36 35 34 34 33 31 30 28 28 29 29 31 29 31 31 27 27 24 24 27 28 34 37 39 41 43 44
79 81 77 72 56 57 65 65 62 55 51 50 53 48 43 41 40 40 46 44 45 43 43 43 41 39 37 35 34 31 31 32 34 34 33 34 33 31 29 29 28 31 32 34 37 39 41 45 48
82 82 77 77 70 61 73 74 63 59 55 52 56 54 46 47 47 46 51 42 45 49 46 46 43 42 40 39 37 36 35 35 36 36 34 35 34 34 32 31 32 34 35 37 39 40 43 47 49
87 85 86 84 78 71 77 74 68 61 59 57 57 58 52 49 46 47 45 44 47 48 51 50 49 47 46 44 40 39 38 38 38 38 37 37 36 34 33 34 34 38 38 40 41 42 45 47 49
87 88 86 89 76 75 79 80 71 68 66 63 66 67 58 55 52 51 48 52 56 51 52 54 53 53 50 49 46 42 39 41 38 39 39 38 37 35 35 36 37 39 42 42 44 46 46 49 52
87 91 88 85 87 76 83 81 80 80 72 69 74 79 67 60 56 56 54 59 61 56 54 56 56 54 53 50 48 45 42 42 43 40 39 37 38 36 37 39 41 43 45 45 46 48 48 51 53
96 95 90 96 96 83 84 83 81 82 83 80 80 86 76 66 59 59 65 65 63 59 59 57 55 53 52 51 50 48 46 45 45 40 38 39 38 38 38 41 45 47 48 50 49 49 51 54 56
118 104 98 86 92 90 92 94 89 84 81 80 83 85 82 76 68 68 69 73 66 65 62 58 59 57 55 52 50 50 46 46 43 41 41 41 39 41 42 44 48 50 51 52 52 52 52 55 56
115 110 105 106 101 94 98 100 97 93 89 90 88 85 81 79 76 76 77 72 74 71 68 67 65 64 60 58 56 53 51 49 47 47 46 44 44 46 47 47 50 52 53 55 54 55 56 57 58
116 112 111 111 113 113 103 104 103 104 98 96 97 85 94 84 83 81 85 82 79 73 74 73 72 69 66 64 61 59 57 55 53 52 50 48 49 50 51 51 53 56 56 57 56 56 59 61 54
105 105 110 109 112 115 115 107 110 112 105 104 102 98 101 96 85 86 89 86 84 77 78 75 76 74 73 70 67 65 63 62 60 58 57 54 54 54 55 56 58 61 59 59 58 60 60 57 49
91 92 97 98 104 107 114 112 108 116 109 105 107 106 103 93 84 87 90 88 87 83 78 81 80 78 78 76 72 70 68 68 68 65 63 61 59 59 59 61 62 60 61 62 62 61 59 55 56
88 88 89 89 93 96 102 102 105 107 108 112 110 103 104 99 89 93 95 92 90 93 84 80 79 83 78 79 79 76 75 74 72 70 70 66 63 63 61 62 60 63 62 62 62 60 58 55 59
90 89 88 88 88 89 92 95 99 97 106 111 113 114 106 102 99 100 97 97 96 98 93 82 83 80 82 75 73 73 78 78 72 76 73 68 67 63 64 65 64 65 66 64 63 63 60 60 60
88 86 88 86 89 90 95 94 94 98 106 105 108 106 112 99 102 103 101 103 99 102 100 92 90 90 84 82 84 75 75 76 75 77 73 72 69 68 65 68 69 67 66 67 65 60 55 60 57
84 86 88 89 93 93 102 88 91 96 104 100 99 104 110 106 100 103 104 100 99 103 102 101 99 96 95 88 84 77 74 79 81 80 78 76 67 66 65 69 70 67 58 64 61 58 60 58 60
84 83 85 87 94 95 103 87 93 99 99 97 98 98 97 102 102 99 106 106 101 101 108 106 99 101 103 101 90 85 83 73 72 70 74 75 73 75 75 68 70 62 61 60 63 56 56 52 51
91 90 91 90 92 97 100 89 96 98 97 94 98 96 92 94 98 102 110 107 101 99 108 109 107 104 105 107 101 93 90 85 81 75 72 67 73 78 77 62 55 56 57 57 57 52 54 54 63
91 93 94 95 94 100 96 91 93 92 95 95 96 94 93 96 97 97 102 103 105 103 110 110 111 108 107 105 105 105 98 95 92 88 85 75 65 67 64 57 56 52 51 53 51 54 49 55 62
91 93 92 92 96 104 101 98 94 90 93 95 98 96 98 99 98 97 96 95 96 99 110 112 112 112 109 105 108 106 105 105 100 97 92 80 71 66 64 62 55 55 52 52 51 49 56 56 63
81 85 93 96 101 106 99 98 94 90 95 101 101 97 96 96 97 98 96 94 92 95 102 111 113 115 112 110 112 110 106 103 103 94 93 80 82 77 74 76 61 54 53 52 45 49 50 52 48
67 79 87 93 100 102 99 97 89 91 96 101 101 101 99 100 101 100 96 93 91 91 96 101 107 113 114 112 112 112 108 100 100 97 92 81 96 91 86 75 68 68 63 50 46 46 39 33 46
56 72 81 86 91 93 92 99 88 97 98 99 100 102 101 102 102 101 97 94 92 92 94 97 101 106 110 107 108 111 106 105 101 93 91 90 94 86 87 80 68 63 59 49 47 48 39 34 39
56 61 70 76 82 84 80 95 89 95 98 101 101 100 101 100 100 101 101 99 97 96 97 95 97 100 102 101 100 105 107 106 100 96 97 92 85 78 73 67 63 67 58 51 53 48 50 35 29
46 58 61 63 73 71 85 96 77 88 94 97 100 97 96 99 101 101 101 101 101 102 97 98 98 99 98 99 98 99 100 100 102 100 95 93 91 88 79 77 71 64 68 63 56 53 48 46 33
44 49 58 61 67 72 81 84 79 84 85 86 92 92 89 91 100 102 101 103 101 100 99 99 101 103 101 101 99 98 98 99 97 102 102 97 92 86 82 82 72 68 68 72 57 54 56 56 41
42 44 51 57 60 64 73 79 83 82 84 85 88 87 88 90 95 99 99 100 101 101 99 99 100 102 104 101 101 98 98 95 95 97 93 92 90 87 85 81 76 75 69 66 61 57 57 53 49
46 47 50 52 51 60 64 74 78 83 84 85 83 84 84 85 89 94 96 98 98 100 102 100 99 100 104 105 103 100 99 98 96 94 92 89 87 88 86 82 75 77 72 70 60 61 65 61 64
41 40 48 53 51 50 54 64 75 80 83 85 85 86 79 82 85 89 93 94 95 95 96 99 102 103 103 104 105 104 101 99 98 96 93 90 89 87 87 84 80 77 81 75 68 69 67 60 67
37 38 45 48 50 49 51 53 69 72 81 83 85 85 83 83 86 89 89 90 89 90 92 94 97 101 103 105 105 105 103 101 100 98 96 94 91 90 89 88 83 76 80 80 75 77 81 73 76

GFSSGP_250_spd_069.txt.gz
Wind_Speed
67 69 67 70 63 59 60 60 55 56 48 43 41 39 34 33 33 36 34 38 38 36 34 37 38 38 38 37 35 34 33 32 31 30 26 21 22 27 28 30 30 32 31 32 33 33 36 37 38
74 73 72 69 72 64 65 62 57 60 59 50 46 45 41 37 37 37 38 40 40 39 32 34 42 41 40 41 40 39 38 37 34 33 31 26 24 26 30 32 33 34 36 33 34 35 37 40 41
81 77 77 75 73 63 67 65 67 63 61 57 53 48 49 44 40 38 38 43 45 46 45 40 41 44 43 42 43 42 41 40 39 37 34 30 27 28 30 33 35 35 36 34 36 37 39 40 43
87 83 83 81 75 69 69 67 67 68 66 64 59 60 53 52 47 46 40 45 48 48 49 47 43 45 47 46 45 44 44 44 44 40 39 39 34 33 34 34 35 36 35 34 37 38 40 41 45
94 90 86 86 75 69 73 69 71 73 74 69 66 63 57 54 53 53 49 48 52 52 51 49 48 48 49 49 48 46 48 49 47 45 44 43 39 37 37 37 37 36 35 37 37 41 42 45 47
97 92 89 82 77 74 75 74 70 75 77 74 72 68 59 54 57 58 60 54 55 55 53 52 51 52 53 51 52 51 52 53 53 52 49 45 45 45 42 41 40 39 40 39 38 41 42 46 48
99 104 96 86 81 79 82 81 78 78 78 82 79 77 70 64 61 64 64 65 61 60 60 56 56 56 55 54 55 56 57 57 56 55 54 50 49 48 46 43 42 42 41 43 43 43 45 47 49
97 98 94 89 87 87 93 89 86 86 85 88 84 82 75 75 75 68 67 69 68 67 64 65 60 59 58 57 60 60 59 57 54 53 54 52 50 47 46 45 43 43 45 48 46 44 47 49 51
101 94 91 92 94 94 100 95 94 93 91 87 85 87 86 88 79 77 71 72 72 72 72 69 65 65 66 61 61 61 60 60 58 55 52 50 46 45 43 45 46 47 48 49 49 48 48 51 53
110 102 102 100 100 96 105 101 99 100 97 91 89 91 91 87 87 79 72 75 74 77 79 74 74 70 71 67 64 65 63 63 63 61 59 56 52 49 48 48 50 52 52 52 52 52 52 54 54
123 109 108 114 106 109 107 106 112 103 93 106 94 93 94 93 91 87 82 73 80 83 84 82 81 78 74 72 71 69 69 67 66 67 65 62 60 57 55 54 55 57 58 57 58 57 57 55 57
119 122 115 124 112 115 115 118 111 111 101 105 94 97 96 93 90 92 89 82 76 81 84 84 81 80 78 79 78 75 72 72 71 69 66 66 65 65 62 59 59 61 62 62 62 62 63 58 52
109 114 116 116 123 116 121 116 125 121 110 110 106 102 99 98 94 94 94 99 93 89 93 89 87 87 84 82 82 82 79 78 76 73 73 73 71 69 67 63 61 66 67 63 67 66 61 55 50
106 110 115 112 116 119 117 103 112 110 115 116 115 118 114 104 104 104 100 99 96 91 97 99 94 91 90 89 86 83 84 83 82 79 77 76 77 75 73 71 69 68 66 63 65 63 62 50 56
95 96 98 98 104 108 111 111 108 107 114 117 117 115 120 115 111 103 109 102 97 104 106 98 103 97 93 93 91 87 88 86 81 79 79 81 77 78 76 72 72 67 58 58 59 59 61 57 54
86 87 89 93 98 100 106 97 102 108 112 118 124 120 118 123 118 108 108 109 108 108 108 104 102 100 100 98 95 90 89 86 83 82 83 82 80 80 79 79 75 64 61 67 63 60 61 60 59
88 86 85 88 97 103 105 95 99 107 111 113 112 109 111 114 121 122 120 117 114 108 105 107 107 106 105 106 100 99 93 90 88 87 86 86 80 79 76 74 74 75 71 69 69 66 61 61 58
90 87 87 86 92 97 98 93 99 107 112 109 107 103 101 97 92 94 98 102 106 118 120 109 110 107 108 111 106 100 96 92 93 85 89 84 91 87 81 77 74 74 74 78 77 67 67 64 67
89 89 89 93 96 101 94 90 94 102 107 105 106 105 105 101 95 94 95 101 105 106 104 102 106 108 108 108 108 113 111 104 100 100 93 79 76 90 92 88 81 73 66 67 67 68 70 62 63
54 71 80 94 99 102 103 96 95 100 104 101 101 104 105 104 101 98 97 97 96 98 98 99 101 103 105 104 105 105 102 102 97 91 88 97 93 75 75 90 89 81 71 69 67 60 63 71 73
40 44 54 67 82 94 104 106 102 103 105 103 102 104 106 106 106 103 102 99 98 94 93 95 97 99 101 100 100 101 100 96 94 94 93 98 91 91 92 83 85 87 88 85 87 85 80 80 80
42 49 52 57 69 76 94 107 108 108 113 110 106 106 105 105 105 104 103 103 102 99 97 96 97 97 99 99 98 95 97 99 95 93 95 97 95 93 87 90 82 83 89 87 81 70 74 73 70
38 48 52 59 71 81 85 97 86 106 114 112 111 112 110 108 106 105 107 105 102 102 97 96 96 95 96 95 96 99 100 98 96 97 94 88 98 105 94 88 88 80 76 72 74 79 76 67 63
41 44 52 59 68 78 75 87 76 88 99 111 116 119 117 115 113 114 112 103 98 99 98 98 98 96 98 100 98 96 94 94 96 95 97 98 90 86 90 84 76 79 78 78 73 78 77 66 58
54 50 56 54 60 64 67 72 64 78 87 94 109 116 114 115 116 116 112 105 101 102 101 101 102 100 102 102 99 98 96 93 92 94 93 93 94 93 92 88 86 75 84 86 86 81 79 64 60
58 59 63 45 47 49 57 54 53 69 81 86 90 94 103 111 114 115 113 110 110 109 107 106 103 100 100 102 101 97 94 94 94 94 93 90 90 92 94 92 90 90 88 84 82 76 70 64 61
57 65 59 47 40 42 42 44 45 54 63 76 80 82 88 99 109 114 116 116 113 111 109 107 106 105 104 104 102 98 97 97 95 95 93 90 90 90 90 92 93 94 92 87 88 82 77 74 73
64 63 51 45 42 42 38 48 49 56 59 62 69 76 78 87 96 103 110 112 111 110 109 106 106 106 105 105 105 101 98 98 96 94 93 91 91 90 90 89 89 91 92 91 92 81 73 69 73
68 64 50 44 43 43 34 44 52 60 60 63 65 68 74 77 83 91 97 101 103 103 99 95 99 102 102 104 105 104 101 100 99 99 97 96 93 91 90 89 88 87 87 87 86 81 76 75 76
72 60 49 46 43 44 35 35 51 58 58 58 61 63 67 76 72 78 87 91 95 96 96 98 98 96 99 100 102 103 102 100 99 99 98 98 96 95 94 92 90 88 86 84 80 79 77 77 81

GFSSGP_250_spd_072.txt.gz
Wind_Speed
75 73 69 64 60 60 58 53 52 45 44 39 36 36 36 33 29 31 32 29 32 34 34 36 37 38 39 38 37 37 37 35 33 30 30 31 30 28 30 30 29 29 32 34 35 36 37 37 40
77 74 73 70 64 66 63 60 57 51 52 48 43 45 42 42 38 33 35 35 33 36 37 38 38 37 40 41 41 40 41 40 38 35 33 32 32 31 28 28 30 33 35 38 37 36 42 41 43
80 78 72 76 69 72 71 66 65 60 55 58 54 47 47 44 46 42 37 37 39 39 42 41 41 39 40 42 43 44 44 43 43 41 40 38 35 34 33 32 33 35 37 38 40 38 42 40 41
85 82 74 76 76 78 78 78 74 67 64 68 62 56 49 50 50 50 46 42 42 43 44 46 45 43 40 42 47 46 47 47 45 47 44 44 42 39 38 38 38 36 36 40 40 41 43 40 44
90 88 83 75 83 83 82 83 82 77 70 69 68 63 62 54 53 52 53 50 45 46 47 48 50 50 49 46 44 49 50 48 48 48 48 48 47 46 43 43 42 37 40 41 40 41 39 40 43
94 94 89 81 89 88 85 86 84 79 79 74 71 67 65 59 56 55 54 55 56 51 52 51 52 52 52 52 51 49 50 52 51 51 53 52 52 50 50 48 48 47 44 41 41 43 41 43 43
90 97 90 87 93 95 90 90 88 86 84 80 77 71 70 67 62 59 58 57 57 58 57 57 56 54 53 55 55 55 55 55 55 55 55 56 56 55 53 53 51 51 52 46 43 42 44 43 45
93 99 92 89 88 95 97 96 90 88 90 85 79 78 74 78 67 65 61 65 63 61 61 63 64 62 59 58 57 57 58 58 59 59 58 57 57 58 57 55 52 53 50 49 47 46 46 47 46
97 95 85 81 90 89 96 93 98 94 92 88 81 81 79 74 70 74 68 67 70 64 67 67 67 68 65 64 60 59 58 58 58 59 59 59 59 58 54 54 53 50 50 51 50 48 48 48 49
98 97 96 96 94 99 101 100 98 99 96 90 88 87 84 78 75 78 76 76 77 84 70 71 72 73 72 69 66 63 61 60 60 61 61 59 58 58 57 55 53 53 53 54 53 52 51 51 52
112 98 100 99 99 104 103 97 97 100 96 99 101 94 90 88 80 82 82 80 80 85 82 75 75 76 77 73 70 68 67 67 65 64 63 63 63 62 61 59 57 59 59 57 58 58 57 57 54
112 110 101 108 105 112 112 104 103 104 102 103 101 101 96 96 95 90 85 85 85 88 89 82 84 84 84 83 79 74 71 71 70 69 70 69 68 67 66 66 63 62 62 62 61 61 65 63 59
114 121 114 110 114 116 124 114 113 103 107 109 108 105 98 95 88 91 96 87 90 87 92 91 83 85 85 84 81 82 80 78 79 76 77 75 73 72 70 68 68 66 66 68 67 67 69 66 62
116 116 121 124 123 116 122 120 119 114 115 113 110 111 105 99 94 101 97 102 94 91 93 97 92 91 93 83 84 86 81 86 87 82 76 76 78 78 78 77 73 70 70 67 65 71 66 68 67
102 106 111 114 121 127 120 121 121 124 128 121 117 112 109 110 112 106 102 108 99 98 99 97 94 94 94 94 91 87 86 86 92 91 84 86 87 84 81 80 80 78 71 70 70 69 68 71 68
93 94 96 102 108 112 117 108 111 119 120 127 123 116 122 122 110 109 111 109 101 106 107 104 102 104 101 96 99 91 62 96 94 96 89 93 89 87 83 82 82 82 74 70 72 69 69 63 63
89 92 95 98 104 107 109 102 103 110 110 111 114 111 115 122 121 113 120 117 110 106 106 104 109 110 108 105 104 105 103 99 96 94 99 100 92 86 84 84 84 82 77 70 72 62 64 65 65
88 89 91 92 97 99 98 95 98 103 104 102 105 107 107 112 118 114 119 119 118 125 120 115 118 112 112 112 110 112 108 107 101 101 98 99 93 91 86 89 90 88 83 81 77 74 70 68 67
67 86 92 96 97 97 97 93 97 101 102 104 103 106 106 102 97 105 112 116 116 114 119 117 103 105 111 112 111 109 102 101 105 106 103 99 98 97 92 93 97 93 88 84 80 79 80 74 68
32 42 63 81 96 98 101 96 96 99 98 99 105 106 108 109 105 105 105 108 109 111 112 114 112 112 112 110 111 112 109 108 104 107 105 103 103 101 98 94 91 90 91 88 86 78 74 69 62
25 28 43 48 61 79 91 96 97 101 105 104 102 106 106 105 107 108 106 106 105 102 101 102 104 107 109 109 111 111 106 104 101 97 95 96 93 94 93 96 95 95 90 83 78 74 75 75 72
35 34 29 39 56 57 63 65 82 97 106 107 109 110 110 112 111 107 104 105 104 101 102 101 101 101 103 104 107 104 102 99 98 100 98 98 95 91 86 81 81 80 78 77 84 81 80 74 72
37 40 45 37 41 55 62 70 62 77 86 94 108 118 119 117 116 113 108 105 103 105 104 106 105 104 103 102 105 103 100 97 96 96 96 94 94 94 90 87 81 79 71 68 62 76 80 82 81
44 47 51 53 49 45 60 79 59 71 87 96 105 118 123 121 120 120 115 110 106 103 102 105 108 108 106 103 104 104 101 100 97 94 93 93 89 87 87 86 82 75 70 67 59 65 72 73 75
53 57 60 61 60 45 55 71 70 84 98 107 110 112 112 114 114 118 118 113 109 107 107 105 105 104 104 103 103 104 101 98 94 93 93 92 90 87 85 82 82 78 72 74 88 79 81 77 80
57 61 68 70 60 50 61 62 59 86 91 99 97 100 104 101 99 102 107 115 115 114 112 110 108 105 102 101 104 103 102 100 98 96 93 92 91 89 87 87 86 87 90 89 91 87 86 80 72
59 65 73 81 67 58 56 58 54 69 69 74 80 85 92 91 93 94 97 102 112 117 114 111 112 110 109 106 105 101 100 100 97 94 91 92 93 92 88 87 86 87 90 92 93 89 84 84 81
64 69 78 80 71 61 51 49 55 58 58 65 71 74 77 79 83 85 89 96 100 108 111 112 113 113 112 110 108 104 100 97 95 93 93 93 93 92 90 88 88 88 87 87 87 88 89 87 81
70 78 85 78 77 62 49 44 50 57 59 62 64 66 64 68 74 76 82 88 93 96 101 105 109 110 110 110 109 105 103 102 99 96 96 95 94 93 92 90 88 86 86 87 85 85 83 83 83
76 84 83 80 73 62 48 38 43 52 56 59 58 60 62 64 66 71 75 81 86 91 90 93 98 100 105 109 107 107 105 103 103 101 99 99 97 97 95 91 88 87 87 86 84 83 82 80 80

GFSSGP_250_spd_075.txt.gz
Wind_Speed
76 70 67 61 56 55 56 58 52 51 45 41 35 30 30 31 32 32 31 27 31 30 34 37 38 38 38 37 36 37 36 36 36 36 35 35 33 32 33 33 33 34 33 34 35 34 37 38 41
81 75 73 66 60 61 61 62 58 54 46 48 42 35 34 35 36 36 34 32 32 33 34 38 38 40 40 40 40 39 41 41 41 41 40 39 37 36 35 34 35 36 35 38 37 35 36 35 39
85 81 77 74 71 70 69 66 65 61 57 52 50 46 42 41 40 42 41 38 36 36 36 39 43 43 43 42 43 44 44 45 46 45 44 43 42 40 40 39 37 37 37 37 35 34 37 40 39
90 89 82 78 74 77 77 72 70 67 66 59 57 56 47 46 42 42 46 44 43 41 42 40 42 47 47 46 45 43 45 47 48 48 47 46 46 45 43 44 43 42 39 40 38 39 42 43 42
95 95 89 82 83 80 82 78 74 72 72 63 62 62 57 53 49 49 50 48 48 47 47 46 45 48 50 49 48 44 44 44 48 50 50 49 49 49 48 48 46 44 45 45 42 43 42 45 43
99 97 91 86 85 89 87 85 80 76 77 71 67 67 67 62 60 53 52 49 51 52 51 50 49 49 49 52 52 51 49 49 49 47 50 51 51 51 51 51 51 50 50 50 47 49 46 47 45
105 100 96 91 88 90 94 93 85 83 80 80 73 76 71 67 67 62 54 53 51 56 54 53 52 53 52 53 54 55 56 55 54 53 53 51 52 53 52 53 54 55 55 54 53 51 49 46 46
102 103 98 91 91 87 94 99 91 86 83 80 81 80 79 73 71 69 62 60 56 59 61 58 57 59 59 57 55 56 59 59 58 57 55 54 54 53 53 53 53 54 54 53 49 49 48 49 48
107 102 103 99 91 94 99 99 95 91 88 84 84 87 85 79 77 76 74 67 63 62 64 64 61 60 61 63 62 61 59 59 60 59 58 57 55 54 54 53 50 50 52 52 50 52 52 50 49
102 97 96 97 100 99 103 102 96 95 94 92 90 90 90 85 83 80 80 77 74 67 69 69 68 68 67 64 67 67 67 62 62 63 62 61 60 60 57 56 55 55 55 55 56 55 55 55 52
110 104 97 97 99 101 100 96 96 92 95 96 97 95 93 91 86 85 85 86 82 74 71 73 75 71 72 70 69 67 69 68 67 68 68 65 63 61 61 60 59 58 59 59 60 61 61 60 59
117 113 112 106 99 105 105 104 103 90 93 94 97 98 96 97 98 93 90 85 85 82 75 73 80 78 77 79 80 75 72 74 74 72 71 71 71 69 67 65 65 67 67 65 64 64 64 64 64
118 121 109 115 111 103 109 109 104 104 99 101 95 92 91 95 102 97 97 91 89 87 86 84 81 84 82 81 86 86 84 79 76 78 81 80 76 75 74 71 71 72 72 69 68 70 70 68 67
115 116 120 117 118 110 112 109 107 107 106 107 102 97 94 94 98 101 102 98 94 94 97 97 91 91 92 91 84 89 90 90 87 78 81 85 83 81 79 77 77 78 75 71 70 74 74 70 69
99 100 107 120 125 113 117 113 107 112 114 117 107 106 103 99 103 97 98 101 99 99 99 102 102 97 94 90 90 88 91 92 90 91 85 85 85 81 81 82 79 81 79 78 73 73 76 73 71
89 96 95 105 110 117 118 111 119 118 111 107 115 112 111 110 106 106 103 104 106 107 106 103 102 98 97 94 98 96 91 96 89 85 89 95 91 86 92 87 84 81 79 79 73 71 76 74 71
77 83 87 88 97 108 117 110 113 120 117 117 112 111 116 118 113 117 115 114 113 113 110 105 106 102 105 103 104 102 101 99 95 87 86 95 80 95 84 76 79 78 85 84 82 79 82 77 73
75 78 79 85 92 93 96 100 99 108 110 113 119 121 118 114 117 115 121 129 118 114 117 112 114 111 110 112 113 110 107 107 102 100 92 101 97 100 98 97 93 88 85 87 83 84 82 81 78
47 68 80 83 87 90 94 96 99 99 103 112 109 113 114 115 112 116 120 127 135 121 120 123 116 113 118 117 118 114 116 113 108 109 106 105 108 109 102 104 100 93 91 91 88 85 83 81 81
10 20 39 59 80 88 92 92 96 100 97 101 100 101 105 106 109 111 116 116 118 129 127 127 120 120 118 120 119 118 111 107 108 106 105 104 112 110 109 108 109 100 96 95 93 93 88 82 80
13 14 17 23 37 52 62 78 92 97 100 101 102 107 110 108 107 107 110 112 116 116 117 119 121 118 118 121 126 123 125 124 119 113 107 104 105 107 106 105 109 99 99 97 94 94 93 85 85
20 18 22 23 26 33 46 38 55 72 88 97 104 110 111 111 113 113 112 112 113 111 110 111 112 113 112 113 118 121 119 121 124 121 121 117 108 104 100 92 90 88 86 85 86 81 79 78 74
22 23 25 28 31 30 38 38 37 51 65 79 93 104 112 113 114 113 113 115 115 110 106 105 105 106 107 108 111 112 112 112 111 108 109 108 108 107 105 103 91 84 76 72 73 70 69 64 59
27 31 33 36 37 36 43 39 35 51 62 77 87 92 96 104 113 116 118 118 117 115 112 109 104 101 102 105 108 111 111 110 110 106 105 102 98 99 100 100 97 92 89 83 78 66 56 61 71
34 37 39 39 45 42 47 47 53 53 68 76 83 94 98 99 101 104 110 118 118 118 115 113 113 109 105 103 105 110 111 112 110 108 107 103 99 95 93 91 87 86 86 82 75 62 55 57 62
42 48 51 46 53 51 58 58 65 64 62 72 83 92 101 106 105 104 104 104 108 116 118 119 117 115 113 112 109 108 107 107 108 107 104 100 98 95 92 89 85 82 82 77 74 70 63 65 60
47 55 59 62 64 64 64 69 73 72 68 76 86 98 102 104 102 102 101 100 102 107 111 112 113 117 121 119 116 112 107 105 102 100 97 96 97 95 94 92 89 85 84 81 76 72 70 70 75
52 58 64 69 74 75 75 76 83 68 67 71 76 82 90 94 97 102 102 100 100 101 105 108 106 107 111 117 120 117 113 109 103 98 96 94 92 92 92 93 93 90 88 85 82 79 79 79 78
57 63 70 74 84 86 82 79 62 55 55 60 64 65 69 71 74 79 85 88 91 94 102 108 108 107 107 108 111 116 116 113 106 103 98 95 92 91 90 91 89 88 87 85 84 83 81 82 87
62 71 77 84 86 88 65 59 50 42 44 46 52 54 57 61 63 65 69 73 72 75 81 89 96 102 104 103 102 106 112 112 107 105 103 100 97 94 92 92 90 86 84 83 83 83 83 84 86

GFSSGP_250_spd_078.txt.gz
Wind_Speed
74 70 66 66 64 61 59 55 54 49 48 43 41 35 34 33 31 26 27 27 25 26 32 36 35 36 37 38 36 36 36 35 34 34 34 35 34 35 35 35 35 35 35 33 33 36 35 37 40
80 75 71 69 69 67 66 63 58 55 52 50 44 43 37 36 36 30 30 30 30 29 29 35 38 38 39 40 40 39 39 38 39 38 39 40 40 39 38 38 37 37 39 39 38 37 38 39 44
86 83 82 74 73 74 69 68 66 60 57 54 51 48 43 40 39 35 36 34 34 34 33 33 36 38 42 41 42 41 41 40 41 42 43 44 45 44 43 42 41 42 41 41 42 42 43 40 46
89 90 87 85 81 80 75 73 70 65 60 60 58 51 50 45 42 40 37 38 38 39 38 38 37 40 39 43 44 45 45 45 46 45 46 46 45 46 46 46 46 45 45 45 44 45 45 45 45
97 91 90 87 86 84 83 78 74 71 67 67 64 59 55 53 49 47 45 41 39 41 43 43 44 44 42 45 45 47 50 50 50 48 47 48 47 48 48 47 47 47 47 46 46 46 46 46 47
102 99 92 87 89 90 89 85 81 76 72 70 69 65 62 59 59 55 52 48 47 48 47 50 50 48 48 47 49 50 52 54 54 53 51 47 45 45 45 48 49 48 47 48 47 46 46 44 40
105 105 100 96 94 96 92 87 86 82 80 78 75 71 68 67 61 61 59 56 53 52 52 54 53 51 51 52 51 51 52 53 57 57 56 55 55 52 50 49 49 49 49 48 46 45 43 41 40
107 108 104 101 99 98 96 92 91 89 86 84 83 78 74 70 70 69 64 64 62 59 56 57 58 58 57 56 54 56 54 54 56 57 59 59 58 57 52 51 53 51 50 52 50 46 44 44 44
110 109 108 105 102 103 97 97 97 96 92 88 88 83 80 75 75 75 73 70 70 66 64 63 62 62 62 62 62 60 60 60 60 61 60 60 58 59 58 54 54 54 54 52 52 51 48 49 50
111 109 105 107 106 108 104 100 102 98 100 96 92 91 87 82 79 78 79 78 74 71 70 69 66 67 66 67 67 67 65 65 64 63 62 64 63 61 62 60 58 57 56 56 52 52 52 53 54
115 107 109 103 107 109 108 106 106 102 99 99 98 96 94 90 88 85 81 83 81 81 79 75 74 71 72 70 72 70 72 73 70 68 68 67 66 66 64 65 62 62 60 58 58 56 57 57 58
112 115 112 107 101 99 103 108 106 106 105 102 104 102 98 95 93 90 89 85 86 87 86 83 82 78 75 76 75 76 77 74 73 70 70 69 68 67 66 66 68 65 64 61 62 62 63 61 63
116 107 114 114 111 104 100 105 106 107 108 108 105 101 100 98 96 96 95 93 91 89 91 91 90 87 81 80 76 77 80 81 79 79 77 77 75 72 72 70 70 68 69 68 69 69 67 64 68
100 107 106 117 111 112 111 106 104 103 107 107 104 109 103 99 100 99 100 99 97 98 95 95 96 96 94 87 84 82 80 81 82 86 83 82 82 82 81 84 83 80 70 69 76 71 67 68 72
88 96 104 102 113 115 106 114 104 103 96 98 100 98 97 99 99 102 101 102 102 102 101 99 97 98 101 101 95 92 87 88 87 83 87 88 88 85 83 85 86 80 79 76 78 74 74 74 70
80 85 94 98 103 112 118 116 123 116 111 104 97 105 103 101 106 109 104 102 100 99 96 100 98 99 95 98 101 100 97 92 93 93 89 94 96 92 82 84 88 86 79 77 73 78 79 77 77
77 81 83 89 93 99 107 111 113 123 121 117 116 106 106 109 110 110 108 108 107 103 104 101 104 103 102 100 99 103 99 97 98 98 96 93 95 93 87 82 87 85 88 81 76 73 79 73 76
61 72 80 82 85 89 93 96 105 119 119 113 118 124 121 118 117 115 113 114 117 116 111 108 109 111 109 107 105 105 103 103 104 104 102 103 96 96 91 89 90 95 88 86 85 81 83 85 87
42 58 68 78 83 84 88 93 96 102 109 113 114 108 119 129 127 115 121 121 125 122 121 121 117 119 115 114 111 111 112 113 111 112 110 106 103 102 98 95 93 96 98 93 90 93 91 92 94
15 26 43 61 73 78 82 85 92 97 104 113 117 119 114 111 125 133 126 120 117 123 122 123 120 123 124 119 118 120 119 119 120 118 117 112 108 108 107 105 102 102 101 101 97 94 93 93 94
16 21 26 33 38 48 66 79 89 91 97 103 109 110 108 106 116 134 135 128 121 120 122 118 121 124 132 129 127 126 123 123 123 123 126 121 117 112 112 112 108 105 102 105 101 95 92 91 91
16 18 21 24 30 32 38 38 58 75 88 96 100 102 108 113 110 105 112 118 122 129 134 136 123 120 120 131 136 133 129 128 127 127 120 115 115 109 108 109 109 106 105 103 95 92 92 87 84
20 22 23 26 29 30 33 39 36 50 57 63 80 89 92 100 108 112 116 116 121 124 127 127 125 123 119 118 121 125 129 124 130 129 126 125 120 115 111 105 100 95 94 95 90 87 85 81 70
30 30 29 30 31 30 37 38 40 47 53 59 65 70 84 86 87 94 107 117 120 123 124 125 124 120 118 119 120 118 117 119 123 124 126 123 122 118 117 112 109 106 104 104 101 96 90 74 66
33 33 36 37 38 40 44 40 48 52 51 59 66 69 72 74 81 89 97 104 111 121 126 127 123 121 118 116 115 113 113 116 118 118 120 117 119 109 107 108 104 101 98 101 99 95 88 87 84
37 41 42 41 43 46 52 50 56 59 62 69 69 71 75 77 80 80 88 98 99 103 113 118 122 125 126 122 118 115 114 112 113 114 116 115 117 111 105 101 100 98 94 92 89 87 83 79 77
39 45 48 49 49 51 57 60 63 70 74 75 76 77 81 85 91 97 96 97 97 100 103 107 109 112 117 121 123 121 117 116 114 112 112 114 112 106 100 99 98 96 94 92 87 86 82 79 76
45 47 52 56 57 60 63 69 77 78 78 80 82 84 86 91 98 104 109 110 105 102 99 101 103 106 107 105 109 114 118 119 117 116 114 114 109 106 99 97 97 96 94 90 87 86 82 79 78
47 53 56 59 62 66 70 73 81 77 70 67 68 72 75 78 82 88 95 100 101 102 100 98 98 99 102 104 102 101 103 108 113 117 117 113 107 106 101 97 94 93 92 90 86 83 82 80 77
51 54 57 61 69 73 67 60 52 46 45 47 48 50 50 53 59 63 69 73 78 84 87 90 93 95 97 99 100 101 105 104 102 98 99 103 105 105 104 102 99 94 92 90 88 85 82 82 81

GFSSGP_250_spd_084.txt.gz
Wind_Speed
79 76 73 70 66 60 54 53 52 53 48 46 38 33 43 37 31 27 20 23 27 24 21 21 20 20 22 26 28 30 34 34 33 33 33 32 31 32 32 33 33 35 36 36 37 39 41 42 43
82 82 80 77 71 65 62 61 60 60 53 46 38 44 45 45 33 30 26 25 31 27 26 25 24 24 23 22 24 28 31 34 37 36 37 36 35 34 36 36 37 38 39 39 39 42 42 44 43
88 86 86 84 76 66 67 68 68 68 57 50 51 51 50 42 36 33 38 32 34 31 31 30 29 27 26 25 25 25 28 31 34 37 38 40 40 39 38 39 39 38 40 42 42 41 40 42 42
100 96 93 89 80 78 76 78 75 74 61 56 58 53 56 50 42 44 45 35 36 35 34 35 33 32 31 29 30 29 29 29 31 34 36 40 41 41 42 42 43 43 43 42 42 36 42 45 45
106 103 98 95 90 86 85 84 82 74 68 65 65 65 56 50 46 50 46 44 42 42 41 39 38 36 36 35 34 34 34 33 33 33 34 36 37 40 42 43 44 45 44 42 42 43 48 45 45
111 108 105 99 97 93 89 86 85 77 74 72 73 71 63 53 52 52 53 50 49 47 46 45 42 42 41 40 39 38 39 39 38 38 37 38 38 39 40 40 42 44 45 44 45 46 46 46 46
115 114 104 106 102 102 95 94 90 83 81 80 78 75 67 58 56 56 55 52 50 51 52 48 49 48 48 46 45 44 41 42 42 42 44 43 43 43 44 44 43 42 41 42 43 44 45 49 51
118 120 117 110 109 104 104 99 95 90 89 88 79 79 75 66 63 62 62 61 58 54 53 52 52 54 54 54 52 51 49 47 48 48 45 45 44 44 46 45 46 46 46 47 49 48 49 51 51
118 125 119 114 113 108 108 104 99 97 93 90 84 82 81 74 69 69 68 68 66 61 59 58 58 58 59 60 59 58 56 56 54 55 54 51 49 48 48 46 48 50 51 51 52 50 51 52 53
116 121 120 120 115 113 113 111 108 106 98 94 90 86 86 83 80 79 75 73 71 69 68 67 67 66 65 65 65 65 64 63 62 62 61 61 57 54 55 55 56 55 52 53 53 54 54 52 52
106 110 121 122 124 127 123 116 115 103 99 96 98 95 89 89 90 87 84 80 76 79 72 72 75 75 73 71 70 70 69 69 69 68 68 68 66 65 62 59 60 62 61 59 61 60 57 56 55
106 107 114 124 132 134 123 118 115 110 107 105 105 99 96 92 90 91 90 89 83 76 74 74 82 85 85 81 77 75 75 74 73 73 73 71 72 71 71 69 68 66 65 67 67 64 59 60 57
99 107 112 120 130 122 121 119 116 110 111 108 105 105 103 98 96 94 92 92 89 86 79 66 58 79 88 89 85 84 81 81 80 79 77 76 75 73 73 75 74 73 68 71 72 69 67 65 65
88 101 109 114 120 121 121 123 118 115 113 111 106 106 105 104 102 102 98 95 94 91 89 87 66 71 88 92 90 91 87 87 85 85 84 84 81 80 81 80 78 79 76 72 72 71 70 69 66
72 91 103 109 112 115 121 119 116 117 118 111 107 105 104 105 104 103 103 103 100 97 93 94 99 94 95 97 100 96 93 89 91 90 90 88 88 85 87 84 82 81 85 79 72 71 71 73 69
57 72 84 99 106 108 115 117 118 117 114 111 106 108 109 107 105 105 105 107 107 104 101 102 104 107 104 103 104 103 100 98 96 95 94 91 87 90 88 88 85 82 86 82 78 77 75 77 74
43 53 64 82 98 101 105 111 117 116 114 113 111 105 102 103 103 104 104 105 109 111 110 110 112 111 109 109 107 105 104 105 102 102 100 96 93 92 91 90 89 88 93 89 90 89 85 81 76
36 43 50 64 84 93 97 103 111 113 116 117 116 114 111 100 98 102 103 104 106 111 110 113 116 115 112 113 112 110 111 111 109 105 106 107 105 102 99 98 93 93 93 89 89 87 89 93 86
26 35 39 47 65 79 91 94 98 108 114 111 115 120 118 121 117 102 104 106 109 113 116 111 115 113 116 115 114 114 113 114 112 111 109 107 105 110 107 104 100 96 99 96 96 93 90 91 89
7 23 38 42 47 64 84 90 93 94 101 106 111 113 111 117 126 128 113 100 106 110 113 110 114 115 112 117 117 116 117 117 119 112 112 108 104 106 106 105 107 102 100 102 101 100 96 97 90
12 9 10 25 41 48 62 80 90 93 93 98 104 112 114 114 112 128 128 131 118 104 106 111 116 115 114 115 113 112 112 113 111 111 112 116 117 116 112 112 110 105 108 106 104 103 100 101 96
19 14 13 11 13 23 43 57 68 83 92 94 94 98 104 110 111 112 116 134 139 134 130 121 109 116 116 114 116 115 114 116 118 118 120 118 113 112 115 118 106 108 110 108 107 105 103 104 103
23 20 20 17 19 16 20 23 37 51 65 79 84 89 94 98 102 107 111 112 116 136 143 137 137 133 128 121 120 116 115 118 119 121 116 116 119 120 124 127 121 118 115 111 111 107 106 107 108
27 25 26 23 22 20 28 25 29 33 31 38 47 58 68 82 91 100 104 105 107 111 118 129 131 136 139 140 145 141 134 130 124 115 112 112 92 99 115 119 118 118 117 114 112 110 110 107 106
30 29 29 29 27 27 34 32 37 40 37 39 40 46 50 55 60 67 80 95 102 112 115 119 121 121 127 134 136 136 138 143 143 137 134 123 112 112 99 108 114 114 113 111 112 114 110 110 111
35 31 32 32 31 33 36 39 42 44 42 42 48 53 61 64 67 70 77 80 84 91 104 105 115 118 121 124 131 133 136 140 143 145 144 137 137 134 132 125 124 122 121 113 110 109 108 103 103
41 37 37 36 37 35 40 43 47 49 45 48 55 61 68 72 73 78 85 85 85 89 93 94 97 104 106 107 111 124 128 129 130 131 134 139 138 139 138 138 132 131 108 106 109 111 115 112 112
44 41 39 40 38 40 42 43 52 50 52 57 63 67 71 75 79 81 87 90 95 95 94 98 98 100 101 103 105 110 114 117 119 122 122 124 126 127 130 123 113 124 124 116 112 110 108 105 104
47 45 43 41 41 42 45 49 53 53 59 62 65 69 64 54 50 51 54 60 69 79 91 97 100 102 104 105 107 109 112 115 113 110 105 108 109 111 110 109 110 106 101 90 86 89 100 94 87
48 47 47 45 45 46 47 51 54 57 58 61 54 34 24 14 14 15 20 31 43 55 67 76 83 87 90 90 95 103 112 116 115 112 105 97 99 94 72 63 66 67 57 38 57 84 96 81 82

GFSSGP_250_spd_087.txt.gz
Wind_Speed
74 75 71 70 65 58 54 55 56 54 52 49 44 40 40 39 31 21 21 28 21 21 20 18 17 16 16 16 20 21 22 24 25 27 29 31 31 31 32 33 33 34 34 33 34 34 34 33 33
80 80 75 75 68 62 63 62 61 65 59 54 49 48 49 44 33 24 24 31 25 24 22 23 23 22 21 19 17 16 17 18 21 24 27 32 33 34 36 37 38 38 38 37 36 36 37 36 35
85 85 82 78 72 65 69 70 71 71 64 60 53 54 54 46 39 32 29 33 32 30 28 27 27 26 26 25 23 21 21 21 20 20 22 25 28 33 36 37 37 38 39 39 39 39 39 39 40
94 88 88 80 78 77 74 75 78 79 70 67 65 58 57 52 44 41 40 41 37 32 32 31 31 30 30 28 28 28 26 25 25 25 25 24 24 26 28 30 34 35 36 38 39 39 38 37 37
95 95 92 86 81 80 80 82 83 84 73 73 72 63 62 57 48 45 48 45 41 40 39 39 38 35 33 33 33 31 31 31 29 28 29 28 28 29 28 29 30 32 34 34 35 35 35 35 36
99 98 98 92 90 83 86 86 89 90 85 82 75 64 64 64 59 51 47 50 45 46 45 43 41 41 40 37 36 36 36 34 35 32 32 32 33 34 34 34 35 35 37 35 36 36 38 40 42
106 107 101 101 97 91 90 100 94 94 93 90 83 73 69 70 65 64 59 56 53 52 46 46 47 47 46 43 44 42 42 41 41 40 38 37 36 35 36 38 39 39 39 37 38 40 41 43 44
106 111 108 105 106 100 101 110 106 101 101 97 92 83 77 74 71 68 64 57 56 54 50 49 46 47 48 49 48 49 49 48 47 45 44 44 43 42 41 41 39 40 41 41 42 42 42 45 46
91 105 111 113 112 107 115 118 108 111 107 104 95 89 85 77 72 70 68 63 61 58 55 50 53 53 53 55 53 51 52 54 54 53 52 51 50 48 49 50 50 49 47 47 47 48 48 49 51
94 97 103 109 116 119 123 126 118 117 116 109 103 97 93 86 77 74 71 69 66 61 60 60 61 60 61 61 61 60 60 59 60 60 59 58 56 55 55 56 56 56 56 56 54 52 52 52 53
98 98 102 102 110 119 122 130 124 123 122 113 108 101 98 90 83 76 75 71 68 63 53 72 68 68 68 69 68 68 68 68 69 67 65 63 62 62 62 62 62 62 61 60 60 60 60 59 59
92 101 103 105 109 113 122 131 128 131 121 116 115 110 101 96 93 89 80 76 73 71 54 39 60 74 69 73 77 74 73 74 74 77 73 70 69 67 66 66 65 66 67 66 65 64 65 64 64
78 81 86 97 112 118 120 129 126 128 121 119 115 111 106 105 99 95 89 83 80 77 79 80 67 45 36 50 77 76 70 72 81 81 84 79 75 74 73 71 72 71 71 71 70 70 70 69 68
62 58 63 79 103 120 121 113 118 119 128 126 122 115 110 108 103 99 95 93 89 89 86 84 84 83 65 20 56 68 56 61 66 72 76 82 81 76 77 79 78 78 78 78 77 77 77 76 75
43 42 51 65 87 108 111 110 114 121 128 128 124 118 113 109 106 102 101 99 97 96 95 88 88 88 85 86 73 60 52 62 58 63 67 68 73 80 85 85 85 84 86 84 85 85 83 81 82
31 30 41 52 70 97 110 107 112 119 123 125 124 117 116 113 109 104 104 103 104 103 100 96 94 92 89 89 93 93 80 87 87 85 85 92 93 91 93 91 88 88 88 90 91 90 89 87 86
29 22 30 45 59 78 95 101 108 112 114 117 120 120 118 115 113 110 108 107 107 108 108 104 101 99 99 101 98 102 105 100 103 102 101 104 99 96 97 95 93 94 91 94 93 94 93 91 91
30 20 16 29 47 59 70 86 97 104 107 110 114 115 113 110 112 110 109 106 103 105 105 109 114 107 105 107 107 108 109 107 106 103 104 109 109 106 102 102 101 99 99 100 98 95 97 97 94
28 19 15 16 23 33 47 59 78 89 98 101 102 106 112 108 110 109 106 104 102 97 97 99 104 117 113 106 107 109 109 111 111 106 105 105 106 107 107 106 105 105 104 102 107 103 100 98 101
26 21 13 18 22 29 37 46 60 73 89 96 98 101 106 109 109 112 112 109 109 105 102 101 105 105 112 113 114 110 110 110 113 110 105 104 101 102 103 103 99 101 104 110 111 108 108 104 104
24 20 16 8 14 28 33 38 48 61 73 85 95 99 101 108 112 112 112 111 107 107 108 111 114 110 111 110 107 110 109 108 109 107 107 107 103 102 100 101 100 95 95 99 100 104 106 105 105
26 20 19 14 9 8 19 37 44 52 62 77 88 94 96 95 97 103 108 113 117 117 114 113 111 111 112 116 115 115 115 115 113 113 111 108 104 102 102 102 96 96 96 96 100 100 106 108 107
24 25 22 18 15 15 14 16 28 40 44 49 59 72 83 89 94 99 105 108 109 110 119 125 128 126 123 120 119 116 115 112 111 118 114 112 110 105 101 97 96 95 91 84 81 90 91 94 102
26 27 29 23 18 23 16 14 20 14 18 28 42 52 62 75 87 92 96 101 108 113 117 120 119 120 124 128 133 136 134 123 114 110 110 109 108 107 104 107 103 98 92 89 95 94 79 78 80
41 30 28 28 23 29 23 23 26 22 19 17 21 29 38 48 58 70 81 92 99 105 110 113 114 114 115 120 124 130 132 136 144 146 141 132 123 110 101 99 91 88 65 68 87 86 75 77 71
42 41 33 28 29 31 29 28 34 26 25 26 28 32 37 40 44 50 56 64 73 81 90 101 112 116 117 116 117 124 130 134 130 129 139 146 143 136 125 111 106 101 92 73 96 73 80 97 110
46 47 43 34 33 30 36 37 35 35 32 30 34 39 41 45 49 53 58 64 71 78 85 90 93 98 105 111 115 115 116 121 129 131 131 128 135 137 135 125 116 113 104 113 125 126 129 125 122
46 53 47 44 39 36 39 41 40 38 35 35 41 43 45 49 54 58 62 67 71 74 78 83 88 90 94 97 103 108 113 117 119 118 119 118 120 123 127 123 119 106 105 110 116 115 109 99 91
44 52 54 46 43 40 39 42 43 41 40 42 43 46 50 53 58 60 56 42 37 39 45 56 64 70 80 89 95 101 107 110 112 116 114 113 109 109 106 101 110 111 109 102 103 98 80 72 77
45 50 54 51 46 43 41 45 46 44 43 47 46 50 53 51 33 18 19 24 29 34 43 49 56 59 56 63 76 78 85 92 101 109 115 115 111 106 97 93 89 84 76 77 77 64 60 49 54

GFSSGP_250_spd_093.txt.gz
Wind_Speed
65 64 60 54 56 51 51 56 61 57 57 49 43 38 35 28 30 29 28 28 28 26 26 25 21 18 18 21 25 26 24 22 21 20 19 19 19 19 21 22 22 20 20 19 19 19 21 22 22
70 66 64 61 58 58 57 65 67 64 63 58 52 47 44 36 33 34 35 34 33 31 28 25 24 23 21 19 19 20 21 21 21 20 19 18 19 19 19 19 18 17 17 18 19 18 19 22 25
73 72 70 66 62 64 65 68 65 67 68 65 60 54 51 45 42 40 38 43 37 35 34 31 27 26 25 25 23 22 21 20 20 20 21 20 19 18 18 18 18 17 17 17 18 19 22 24 25
77 74 77 68 71 75 74 73 72 73 75 69 67 64 59 58 52 48 44 45 43 36 36 37 34 32 31 29 28 27 27 25 25 25 23 23 22 21 20 20 20 19 19 20 20 21 21 22 22
81 80 75 69 71 81 85 81 76 78 81 78 73 71 69 67 62 55 52 51 48 41 42 44 37 37 36 34 33 32 30 30 29 29 28 27 27 27 25 24 24 24 24 23 22 22 22 23 25
86 86 81 80 82 82 84 93 87 83 87 81 79 78 74 72 68 63 58 58 55 50 46 46 42 40 40 41 39 38 36 33 34 34 34 34 33 33 32 30 29 29 28 27 26 25 26 29 33
92 89 87 89 91 91 90 92 89 91 93 90 84 80 79 77 72 66 65 63 63 59 57 54 51 46 47 47 45 43 41 40 38 37 38 39 38 38 38 37 36 35 33 33 32 32 34 35 38
94 92 92 91 96 92 90 95 96 92 94 98 91 81 82 82 76 72 70 66 68 67 64 62 58 56 53 52 49 46 45 44 42 43 44 44 44 43 43 42 42 41 39 38 39 40 41 41 42
94 97 99 101 98 95 94 93 99 101 97 91 92 95 86 84 84 80 82 78 70 69 69 68 64 61 62 59 56 53 50 48 48 48 49 48 47 47 48 48 47 46 44 43 43 44 45 47 46
97 99 101 100 102 101 97 97 103 103 103 95 94 98 96 89 87 85 86 87 83 77 76 73 70 66 64 64 61 57 55 54 51 49 50 52 53 50 50 48 48 48 48 50 49 51 52 53 52
75 81 93 97 100 105 104 98 102 102 100 101 100 102 100 98 94 91 90 89 91 87 83 81 78 74 71 69 67 62 60 58 55 55 56 56 57 56 56 54 54 57 54 55 54 55 57 58 56
66 69 73 82 89 98 104 102 97 97 102 103 106 109 113 104 100 99 98 96 94 92 89 87 82 81 79 76 70 66 61 61 58 52 56 59 64 63 61 56 59 61 65 65 63 60 57 55 53
69 72 74 77 81 84 89 96 104 103 101 115 116 119 118 113 109 105 102 100 104 98 91 91 91 84 83 79 78 73 65 62 57 55 56 65 61 56 35 54 46 53 57 55 60 62 54 53 53
63 66 73 81 85 86 90 94 97 100 105 109 115 115 109 110 110 115 111 112 112 111 102 96 96 93 88 80 82 80 78 73 65 63 60 54 58 44 48 54 42 45 51 51 51 57 49 48 54
51 56 57 64 78 89 96 98 98 100 97 97 96 92 96 101 100 101 110 114 115 116 114 106 101 97 95 88 90 85 85 81 73 71 59 51 44 51 54 53 50 53 59 63 62 58 66 63 73
54 51 49 60 62 68 74 87 99 107 104 102 99 97 96 96 94 99 104 110 119 118 118 116 110 104 100 98 96 96 96 91 83 75 74 63 60 60 55 58 64 73 79 74 72 71 72 77 83
54 49 53 54 54 58 63 68 77 85 91 97 101 105 105 102 107 105 105 104 112 116 118 118 115 112 107 103 100 99 98 99 93 86 84 84 87 89 84 85 87 89 90 89 86 84 85 83 87
52 51 54 51 49 51 55 57 63 68 72 82 88 93 102 111 111 114 115 108 105 108 119 121 117 115 114 108 105 103 102 103 102 96 92 90 87 88 86 86 89 92 94 91 93 88 81 77 81
54 52 53 48 44 46 48 51 49 53 58 68 83 94 101 108 112 120 119 115 110 110 109 118 121 119 116 115 108 106 106 106 105 102 100 95 92 88 87 85 90 88 81 83 81 83 82 83 85
53 52 50 45 44 41 40 41 35 33 36 52 60 66 76 93 114 113 118 111 115 117 113 110 111 117 120 117 111 108 110 111 109 108 103 99 94 94 94 93 92 91 85 83 76 85 88 76 81
51 49 47 44 42 37 34 30 32 25 17 20 33 40 50 67 85 101 98 104 94 117 114 115 115 112 114 119 121 121 111 111 112 111 110 104 95 95 88 86 68 89 85 86 85 87 70 67 69
52 50 45 38 39 37 33 24 24 26 17 14 14 20 32 46 61 79 94 99 101 92 109 118 116 112 111 109 112 111 110 108 111 110 110 112 113 109 107 99 90 92 92 89 87 86 75 74 66
52 49 44 39 39 38 35 23 17 17 16 16 16 22 30 38 47 58 75 91 98 105 109 113 113 110 106 106 106 108 105 101 98 101 106 115 115 112 111 112 110 110 107 99 85 81 85 89 97
51 51 46 41 37 34 34 28 14 12 10 10 21 24 28 35 42 49 55 64 74 82 89 92 95 99 101 103 106 107 108 108 104 110 109 111 117 121 124 126 125 122 120 116 110 103 97 84 72
51 51 47 42 38 37 36 31 23 17 13 10 8 11 21 27 28 29 37 44 53 61 69 77 86 96 99 100 100 100 104 108 110 113 115 114 116 113 116 123 125 124 124 126 124 120 119 115 109
53 51 47 44 41 38 35 34 37 22 18 15 11 12 11 11 15 20 25 32 39 46 54 61 69 76 82 86 91 95 100 103 104 108 109 109 114 119 120 120 119 118 118 118 119 119 120 118 115
51 51 49 46 46 42 40 35 40 35 27 21 21 20 20 19 21 21 22 26 30 34 40 47 54 62 71 79 86 91 95 99 102 105 109 113 115 118 122 124 124 126 128 127 126 123 123 120 113
57 55 53 51 48 46 46 42 39 40 34 28 26 26 26 26 24 24 24 25 28 34 39 43 49 55 61 66 73 79 85 88 92 96 102 107 112 117 121 124 126 128 131 134 135 134 134 133 129
56 53 54 53 52 51 49 44 42 43 42 34 31 31 30 34 32 28 28 30 37 40 43 48 52 56 60 63 66 69 74 79 83 86 90 94 98 102 105 109 113 117 120 123 124 126 125 123 125
60 57 56 55 56 57 55 45 45 44 46 43 40 35 38 38 34 33 35 39 39 41 43 45 47 50 52 55 56 59 63 70 77 85 88 89 89 85 84 90 94 98 104 110 115 117 117 115 109

GFSSGP_250_spd_096.txt.gz
Wind_Speed
59 61 62 58 57 51 48 57 58 55 53 47 41 38 35 30 28 29 27 23 27 27 24 23 23 19 17 21 26 27 27 26 26 25 24 23 22 21 20 19 18 18 16 15 14 12 12 14 16
69 61 67 64 58 59 56 58 58 61 58 55 47 43 40 36 34 30 31 29 28 30 27 24 23 20 19 20 20 25 28 29 28 27 25 24 23 20 17 16 17 16 15 15 14 14 14 17 17
75 70 62 68 67 64 63 64 63 64 63 62 56 51 47 45 41 39 34 34 35 31 31 30 27 26 25 24 23 23 23 23 24 25 25 22 20 19 18 17 17 18 18 17 17 17 15 16 17
63 70 68 66 72 69 69 68 71 68 68 65 63 61 59 55 50 46 45 42 41 42 35 33 34 33 31 29 27 25 26 26 25 24 23 23 23 22 21 22 22 22 23 22 21 16 16 16 17
73 71 72 74 70 75 74 71 74 75 72 71 68 67 65 65 61 54 53 50 47 47 46 39 36 37 37 33 30 31 31 29 27 27 27 26 26 28 28 28 27 27 28 26 25 23 22 21 23
76 78 74 71 73 75 78 81 75 77 77 76 71 69 69 71 68 65 63 57 56 55 54 48 44 43 44 39 37 36 36 36 33 31 31 31 31 31 32 32 31 30 32 32 32 30 30 30 33
86 81 77 83 84 86 89 87 80 77 80 79 76 78 76 72 74 71 69 65 62 61 60 60 55 50 49 47 43 40 41 39 39 36 34 35 36 35 36 37 37 35 34 36 36 34 35 35 36
90 86 86 85 88 88 91 84 86 84 85 83 75 75 78 79 81 79 76 73 67 66 64 65 63 61 56 53 51 49 48 47 45 43 40 40 39 39 39 39 40 38 39 38 38 36 36 38 41
91 89 90 92 89 85 91 93 92 90 87 92 87 79 82 83 81 82 82 83 76 72 69 65 66 62 62 62 58 56 56 54 52 47 47 46 44 45 44 42 40 40 40 40 40 39 43 42 46
88 89 91 89 90 88 89 89 94 93 94 89 94 91 87 91 89 87 84 85 85 79 75 74 72 72 71 69 66 63 62 61 59 59 55 50 49 50 47 46 46 45 46 45 41 44 49 52 52
79 82 86 89 90 89 89 90 92 94 95 98 98 99 96 95 94 90 91 87 86 86 84 81 80 80 76 74 71 73 68 65 63 61 61 58 56 56 51 48 48 51 52 51 47 46 50 50 53
71 78 80 84 85 84 87 85 87 89 93 97 99 101 104 99 97 94 91 91 90 89 89 88 87 86 86 85 81 76 77 74 71 68 65 64 62 61 55 51 51 54 54 53 46 53 41 47 46
64 66 70 72 72 73 76 78 80 84 85 92 97 109 110 103 101 102 100 94 95 94 91 92 93 90 91 93 91 86 81 79 78 76 72 69 66 63 57 55 53 54 54 47 54 50 47 44 41
60 62 64 64 65 67 69 71 74 80 84 86 91 100 110 108 108 110 108 106 101 99 97 94 96 94 93 94 94 93 92 85 83 79 78 74 70 69 62 56 56 60 60 52 55 53 55 40 46
64 66 67 65 66 67 69 74 77 80 81 85 87 88 94 98 106 116 115 112 111 108 104 102 101 103 100 100 98 98 97 92 86 86 83 79 74 72 72 68 62 56 54 51 54 54 48 47 62
64 64 62 60 59 57 54 63 63 67 73 79 88 92 94 95 94 103 103 114 111 109 108 106 107 106 106 109 106 103 100 98 96 90 89 85 82 80 75 74 71 64 56 51 53 56 55 66 75
59 59 53 51 57 55 57 63 61 63 67 72 82 91 96 100 100 97 96 94 98 103 106 102 101 107 109 109 108 106 107 102 100 97 95 91 86 85 83 83 80 74 69 61 65 72 73 77 79
58 57 58 58 59 61 61 65 62 61 66 68 73 81 86 93 101 103 102 101 98 98 98 99 97 99 107 110 110 109 109 108 104 102 100 98 91 89 84 83 84 81 81 86 88 89 85 86 85
60 60 59 61 62 58 63 66 59 61 63 63 60 63 70 75 80 82 91 93 105 110 104 101 96 94 99 104 106 107 107 107 107 106 104 104 104 100 94 91 82 82 79 84 86 86 85 85 79
63 62 64 62 59 56 64 63 59 60 59 58 56 61 64 70 79 85 84 84 101 106 110 110 105 103 100 99 100 106 107 109 108 108 103 104 105 103 99 92 89 86 65 59 62 78 88 87 90
67 66 69 67 58 56 65 59 58 56 52 53 52 54 56 57 66 77 88 94 102 108 106 110 110 109 108 103 101 101 100 104 107 108 104 103 104 104 103 98 94 92 87 76 81 87 74 79 76
69 72 71 65 59 58 61 57 55 52 48 49 46 44 45 48 49 56 70 86 97 104 108 108 107 105 108 102 107 106 102 102 99 102 105 104 101 103 103 101 98 95 89 97 94 87 89 85 73
68 69 68 61 59 57 56 53 51 48 45 43 40 33 35 35 29 34 45 62 74 88 98 102 107 107 107 105 103 97 103 109 108 106 103 101 101 100 103 105 100 99 100 102 102 94 99 89 83
63 65 63 59 59 55 54 49 48 44 42 36 31 29 27 26 24 23 24 30 44 62 78 94 101 106 107 108 103 105 108 107 107 109 107 106 105 102 104 103 106 108 110 109 106 107 107 106 102
59 61 62 60 57 56 52 48 45 42 38 35 29 25 23 22 23 21 20 25 31 37 47 61 82 99 100 101 106 104 102 101 104 106 108 107 107 107 108 106 106 108 110 109 112 113 109 107 106
53 56 58 56 57 56 52 47 42 39 36 38 33 27 21 15 13 16 20 22 24 27 34 42 49 58 78 86 88 93 97 97 96 98 104 105 105 104 105 104 103 104 105 104 108 107 113 115 115
54 54 53 52 51 54 52 48 42 39 36 33 38 32 27 21 18 16 14 14 18 22 26 30 36 43 49 57 65 72 79 81 83 85 89 94 97 100 102 105 106 106 107 110 112 114 117 119 119
55 54 53 54 53 52 52 51 45 41 41 37 34 38 34 29 27 25 22 21 21 21 21 23 26 30 34 40 46 54 61 66 72 78 82 85 89 93 97 100 103 105 106 107 110 114 119 119 115
53 53 53 54 53 54 52 51 51 48 46 43 36 37 39 38 36 32 28 27 24 24 27 28 31 34 39 43 46 48 52 55 56 59 65 70 75 79 82 86 90 93 96 99 102 106 110 113 115
56 54 54 54 53 54 55 56 55 52 50 47 40 40 44 43 41 37 34 30 28 32 34 35 38 42 45 48 51 54 58 61 64 68 71 75 79 81 86 88 88 89 90 92 93 97 100 103 103

GFSSGP_250_spd_102.txt.gz
Wind_Speed
61 58 56 56 53 54 52 50 48 43 40 36 37 36 34 35 31 28 27 27 26 22 22 26 29 29 27 25 24 22 23 24 27 31 31 31 31 29 29 29 29 27 25 24 23 20 17 15 14
64 59 60 57 56 57 57 55 55 51 48 44 40 41 40 38 37 35 32 30 28 28 25 24 25 28 27 25 24 22 21 21 24 29 30 30 30 30 30 31 31 29 26 24 22 21 17 18 16
69 66 65 61 60 59 65 61 60 59 54 51 46 43 41 42 42 39 37 35 33 31 28 28 28 25 26 26 25 23 22 21 22 24 27 30 30 31 32 31 31 32 28 23 21 21 20 18 18
71 73 65 67 64 67 64 68 63 62 60 57 52 47 47 43 46 43 41 39 38 36 34 34 33 33 32 30 29 27 26 24 24 23 23 25 26 25 23 23 21 22 23 22 20 19 20 20 20
77 73 73 65 71 73 73 71 69 62 63 60 58 53 50 51 47 47 46 42 43 43 43 39 39 37 38 38 36 33 32 30 28 27 27 27 26 25 26 24 24 24 24 24 24 22 22 22 22
74 77 77 75 74 78 79 72 71 64 64 63 62 61 56 55 55 53 52 50 49 48 47 46 46 46 44 43 42 42 42 39 35 33 32 32 31 30 30 31 30 28 28 29 30 28 28 27 28
78 76 77 82 83 80 80 74 73 72 68 70 64 60 63 63 60 59 58 57 57 55 53 53 52 53 51 49 49 47 48 47 46 45 43 39 39 38 37 35 36 35 35 35 36 36 33 32 33
85 84 79 83 85 86 83 74 76 77 76 71 73 67 65 61 69 66 66 63 62 61 61 61 60 59 59 57 57 57 53 53 50 49 49 50 47 43 43 43 42 41 41 40 38 40 40 36 35
96 89 86 86 86 91 84 80 81 80 78 79 77 74 70 64 63 65 68 70 67 67 65 65 65 63 62 65 65 63 62 60 58 56 55 55 55 55 51 48 49 50 47 47 44 43 43 41 38
97 92 91 95 89 91 88 88 84 84 85 82 81 80 78 73 72 72 71 72 69 70 70 70 69 71 68 67 68 67 65 66 65 64 62 60 59 58 60 59 57 57 56 53 53 50 51 47 44
93 97 95 89 93 97 92 90 90 90 89 88 85 84 77 74 74 76 79 79 79 76 72 73 73 72 74 72 70 71 71 69 68 68 68 64 65 65 60 60 60 59 58 58 58 59 59 56 49
78 85 87 89 84 85 89 95 92 92 88 98 93 91 81 78 79 80 78 74 76 77 79 79 78 78 78 79 76 76 77 76 75 75 74 73 71 70 71 71 69 66 64 62 60 62 62 62 59
68 72 76 80 85 84 83 85 83 89 91 98 96 94 87 89 87 87 88 87 83 82 82 80 80 80 79 79 80 80 79 79 80 79 79 79 79 77 75 75 75 74 71 69 69 67 66 66 63
63 66 70 74 76 79 82 85 87 87 85 89 91 98 95 86 91 89 86 87 90 91 90 87 87 85 85 85 85 84 84 84 83 82 82 82 82 81 81 80 79 79 78 75 73 69 69 69 68
62 64 66 69 71 73 75 81 86 86 85 87 88 87 86 87 88 94 92 92 92 91 92 91 91 94 96 91 91 90 91 90 89 88 88 87 87 84 82 84 84 84 83 81 77 74 73 71 73
65 64 64 64 64 66 68 73 78 76 82 86 83 83 81 77 77 81 85 89 93 95 96 99 99 98 100 102 100 98 96 93 93 92 92 91 87 88 86 85 86 85 86 85 81 79 76 76 75
67 65 63 60 60 60 62 65 65 67 69 70 72 73 70 69 72 76 79 84 87 89 95 97 99 102 101 102 103 109 107 106 104 99 97 97 94 91 91 89 90 91 91 88 88 85 85 81 79
70 68 66 62 58 56 58 62 61 60 62 63 61 61 58 59 59 64 67 71 75 77 79 82 85 89 94 99 102 103 104 106 107 108 105 103 99 95 92 86 90 95 93 91 94 93 88 85 84
73 70 68 67 62 60 61 63 65 61 66 63 62 61 61 62 63 69 68 68 71 73 75 76 78 83 88 91 94 98 102 104 103 104 105 104 102 100 96 89 78 90 92 91 97 99 93 89 88
77 75 74 73 69 65 67 69 69 68 69 66 67 65 66 64 64 68 67 68 72 71 74 75 79 83 87 89 95 95 100 102 100 101 100 101 97 98 97 99 105 108 105 101 102 95 101 98 96
75 75 77 79 74 71 71 73 72 72 68 64 63 63 62 62 64 66 69 70 71 72 74 77 82 85 84 86 90 91 97 95 100 102 101 98 94 94 94 80 91 101 96 103 103 99 103 100 92
78 76 77 77 72 71 69 71 71 70 65 62 61 61 63 65 67 66 69 70 71 73 75 78 77 74 75 78 85 92 92 94 94 95 97 98 100 98 92 89 94 95 93 92 96 102 103 105 98
81 80 77 76 73 72 66 72 73 69 65 63 61 60 63 64 64 66 67 67 69 70 72 76 72 66 64 71 81 85 91 95 93 93 90 95 96 96 96 92 98 99 96 93 95 99 97 105 94
70 79 78 75 75 73 73 71 75 72 68 69 66 64 63 66 69 69 67 66 66 68 67 67 61 62 56 54 67 78 88 92 99 98 90 89 89 94 95 96 101 99 98 99 100 102 98 98 94
62 66 74 77 72 71 75 71 77 70 72 70 69 67 67 70 71 68 66 64 64 64 64 57 54 53 53 50 50 63 78 87 93 93 97 95 90 90 87 93 97 102 104 107 103 101 99 97 97
61 63 64 70 74 74 72 71 75 67 74 72 72 72 70 70 70 67 64 64 62 60 59 52 47 42 42 42 40 46 70 88 95 94 93 86 87 88 89 86 85 89 90 96 103 105 103 105 105
59 57 64 60 64 69 69 71 71 70 72 72 71 71 71 70 67 66 64 63 60 55 52 46 42 34 30 26 27 30 40 53 77 78 86 90 85 82 84 85 85 94 95 90 92 90 95 97 97
56 60 57 61 56 60 67 69 72 71 71 70 68 68 68 65 63 64 62 60 56 51 48 43 37 33 27 23 19 19 22 28 38 57 83 85 87 88 94 97 95 91 89 89 93 94 93 96 99
49 54 57 58 57 55 56 61 63 64 66 66 64 63 62 61 62 61 60 57 55 50 45 40 38 34 31 25 21 19 18 18 20 24 30 38 46 50 54 58 65 74 81 88 92 93 97 88 85
43 50 54 56 58 56 55 60 60 64 64 64 63 61 60 59 58 57 56 55 55 51 45 38 39 37 36 33 30 29 27 26 28 31 35 39 44 49 51 53 54 56 57 61 65 68 71 72 73

GFSSGP_250_spd_105.txt.gz
Wind_Speed
53 50 48 58 53 50 50 49 47 45 40 35 37 39 39 34 31 27 27 26 24 24 24 25 26 27 28 28 28 27 28 27 27 26 29 31 32 33 31 30 30 29 30 30 29 27 25 23 19
60 56 55 53 60 55 54 57 53 50 41 43 41 39 41 38 37 33 35 33 30 29 27 25 26 26 26 27 28 27 26 26 25 22 23 28 31 32 32 32 31 31 31 32 31 28 26 23 21
63 62 55 54 52 61 62 60 58 51 52 48 47 45 41 37 41 37 40 38 37 35 32 31 29 29 27 25 25 28 27 26 25 22 21 23 26 29 30 32 32 30 28 28 26 24 22 19 20
65 64 63 57 55 68 69 67 57 59 58 53 49 50 45 43 43 42 41 42 42 39 37 35 33 32 32 32 29 29 30 30 27 25 24 24 25 25 24 23 21 21 21 21 21 21 22 23 25
76 70 66 59 58 71 74 69 63 66 60 59 57 53 48 49 47 44 45 45 44 44 43 41 39 37 36 36 37 34 32 33 33 32 30 29 28 28 26 25 24 23 24 25 25 26 25 26 27
80 78 71 65 69 75 79 69 66 71 62 64 60 61 58 49 53 50 49 50 50 48 47 47 45 43 42 42 42 41 41 39 39 40 38 36 36 34 31 29 29 29 28 28 28 30 30 31 32
86 85 78 75 75 76 81 76 69 76 71 64 68 67 68 61 56 59 57 54 54 55 55 53 53 50 49 48 47 47 48 48 45 44 43 43 43 43 43 43 39 37 37 35 34 33 34 35 36
90 86 83 81 80 82 82 73 78 76 72 72 68 74 74 56 60 60 59 63 62 58 59 61 59 59 58 55 52 53 53 52 51 51 52 52 49 48 46 47 47 48 47 45 42 39 40 40 40
96 94 90 85 87 84 81 75 80 84 81 76 78 73 70 63 70 65 62 61 60 63 64 62 63 65 61 61 60 60 59 59 57 58 58 60 58 55 54 51 51 52 52 50 50 48 45 44 46
105 101 94 89 89 87 85 79 82 81 85 86 82 81 75 73 74 71 71 70 67 62 62 63 66 67 66 66 66 65 65 64 63 61 62 64 62 60 59 60 57 55 55 55 55 55 55 54 51
98 100 102 102 95 90 88 88 83 83 85 86 87 86 83 77 76 76 78 76 75 72 71 68 68 67 69 68 67 66 67 70 68 67 66 64 64 65 63 63 62 60 58 58 57 55 55 55 56
88 93 99 101 100 98 98 96 89 88 88 89 85 89 87 83 83 81 81 76 77 61 88 82 77 75 73 73 74 72 74 73 75 75 74 74 72 72 71 68 69 68 65 64 62 62 62 64 63
77 83 88 93 95 97 96 98 96 89 93 96 92 90 88 87 88 86 87 80 72 73 82 71 80 76 74 77 78 79 79 78 79 80 80 77 77 76 77 77 75 72 71 70 68 66 65 65 65
71 75 79 81 85 91 92 93 91 92 94 90 93 98 94 93 91 92 92 86 85 82 92 93 88 83 82 81 78 78 77 78 79 79 78 78 80 81 81 78 78 77 76 76 72 72 72 70 69
72 69 71 75 76 76 81 84 89 93 89 88 87 90 95 96 92 92 95 95 91 90 92 94 91 92 95 92 90 86 85 84 84 84 84 86 87 85 83 83 84 83 82 80 78 77 76 75 75
74 72 68 69 71 73 72 75 81 85 87 91 92 93 92 91 91 89 89 89 95 100 97 95 95 94 96 99 97 95 94 93 91 92 90 91 92 88 88 88 89 88 85 82 80 82 80 79 79
78 73 69 70 64 63 66 72 72 74 79 84 91 94 92 92 94 92 90 90 91 96 99 99 97 96 94 93 95 96 97 100 99 101 101 98 97 97 96 95 95 92 90 87 85 85 84 84 86
79 76 73 71 64 62 58 66 66 68 70 74 77 80 82 87 92 92 93 92 93 89 88 90 92 92 92 94 95 93 95 96 99 101 97 92 103 102 99 102 103 101 98 92 89 88 89 89 88
80 78 75 73 69 61 61 66 64 62 63 67 69 70 72 73 78 80 84 87 86 79 80 84 85 85 83 85 90 91 95 95 93 97 102 96 101 97 96 99 96 99 98 96 92 89 92 96 93
78 80 78 75 72 65 67 67 64 64 60 66 66 67 67 65 65 65 67 71 72 74 77 76 74 73 74 75 78 79 81 83 87 91 96 100 101 102 98 96 98 92 90 89 83 76 92 91 86
63 82 82 79 75 71 70 70 68 67 65 66 65 65 65 64 60 60 60 62 64 65 67 67 70 71 72 73 75 77 79 82 86 92 96 96 96 96 97 96 96 87 87 71 60 52 60 72 77
54 70 85 83 80 76 76 75 75 73 71 70 69 67 66 64 60 63 64 66 67 66 66 67 69 70 73 74 76 78 80 83 89 90 89 90 91 86 89 91 96 88 83 72 61 72 67 69 79
56 56 71 86 85 84 82 79 78 79 77 75 73 70 69 67 65 65 66 65 65 65 67 69 69 70 72 74 74 78 81 85 85 85 87 88 89 90 87 84 91 96 88 78 79 87 80 74 82
58 56 56 71 85 86 83 83 84 87 81 83 77 73 71 70 68 67 63 64 65 64 65 67 67 67 69 70 73 77 81 80 75 77 81 87 91 90 86 83 83 88 91 89 87 100 103 98 83
52 57 55 57 71 78 80 85 81 86 84 83 75 75 72 70 67 65 63 65 67 66 66 64 65 66 67 68 71 75 76 70 67 66 69 78 84 85 88 86 87 84 81 85 93 102 109 107 103
52 53 53 53 58 68 82 75 80 84 78 77 73 75 71 69 69 68 67 67 70 69 67 65 65 65 65 67 70 72 65 60 57 53 55 64 69 75 85 85 86 85 84 79 83 96 109 116 119
54 49 54 56 54 60 65 75 78 74 76 76 77 75 72 70 71 71 71 70 73 70 69 66 65 63 63 63 64 63 57 51 47 43 43 47 53 61 81 82 83 81 78 75 80 85 88 99 105
52 50 53 50 50 56 61 65 70 77 72 70 73 74 73 71 71 72 73 74 73 70 69 67 62 61 59 58 57 56 53 45 39 34 31 29 32 44 62 76 89 99 87 72 77 73 84 81 82
51 49 51 51 48 54 56 63 61 62 75 74 73 72 71 72 71 70 70 71 69 69 66 63 61 60 57 55 53 53 52 44 39 34 30 27 25 24 28 49 76 93 99 88 85 88 85 90 91
48 48 49 50 50 54 57 60 63 59 59 66 73 72 70 68 70 71 71 68 66 64 62 62 62 59 56 54 50 51 52 47 43 40 37 35 34 34 35 37 40 44 47 51 56 60 63 62 63

GFSSGP_250_spd_108.txt.gz
Wind_Speed
60 55 51 50 43 42 47 49 50 47 40 40 36 40 38 41 27 24 26 26 30 26 25 26 24 23 27 28 29 29 27 26 27 26 24 24 24 24 30 32 30 28 28 27 28 28 25 24 24
64 59 53 55 46 42 48 55 55 54 42 41 43 43 43 36 34 35 33 29 32 26 28 27 26 25 24 25 25 25 26 28 28 26 25 23 20 20 24 27 27 28 28 28 27 25 22 20 19
65 63 57 56 55 50 51 56 61 60 50 48 48 43 46 37 39 40 39 35 37 33 33 34 31 29 28 27 27 25 25 24 27 26 26 24 22 21 21 22 24 24 21 17 18 18 17 17 15
68 66 64 58 57 58 59 61 62 59 47 53 53 51 49 42 45 45 42 38 40 37 37 38 38 37 36 34 34 31 29 27 25 25 28 28 27 25 26 25 22 21 20 20 21 20 19 18 19
78 69 65 63 65 62 66 64 63 57 50 54 60 58 53 47 50 50 49 44 43 42 41 41 41 41 39 37 39 38 36 34 31 29 29 31 30 29 28 29 29 28 25 23 24 25 24 21 22
82 82 74 68 67 69 70 71 66 66 57 62 61 60 60 54 56 52 53 52 49 47 44 46 44 44 45 43 42 42 42 41 39 38 37 35 36 36 35 33 34 35 36 37 34 31 31 31 31
88 85 80 79 74 75 74 79 76 69 60 60 65 62 65 64 54 60 59 56 52 52 52 48 50 49 49 49 49 47 47 45 45 45 44 43 41 40 40 40 40 39 40 40 40 41 42 42 40
95 92 85 84 84 82 87 85 77 68 67 66 66 69 73 63 58 59 67 62 60 55 54 57 56 54 55 58 60 57 55 53 50 49 50 50 49 48 47 47 47 46 46 44 43 43 44 44 44
98 97 95 93 94 93 97 89 82 73 74 77 71 81 75 68 61 68 66 66 62 59 57 55 58 64 66 65 64 63 63 61 58 56 54 54 53 52 53 53 54 54 53 52 50 48 45 48 49
98 96 94 102 102 104 97 95 88 80 80 83 77 82 82 68 74 74 72 69 63 61 57 57 61 65 67 70 72 69 67 64 63 61 61 60 59 58 58 57 57 57 58 57 57 55 52 49 48
93 92 97 99 105 102 98 94 87 90 87 85 81 77 85 75 76 75 79 75 66 66 62 61 70 78 78 77 72 67 64 63 63 63 63 59 61 64 66 65 63 62 59 60 62 62 61 59 55
83 85 94 98 100 99 100 101 97 94 91 89 85 81 83 86 81 83 77 77 71 61 57 57 58 86 82 83 81 71 66 66 67 68 68 68 69 69 68 69 68 67 67 67 66 65 65 65 65
78 84 83 86 92 93 99 103 99 95 93 90 95 88 91 89 84 82 82 83 76 70 56 50 51 43 35 39 78 81 85 65 68 72 67 66 68 70 70 67 69 69 69 68 69 71 70 69 69
71 80 84 82 82 84 94 98 97 97 97 95 93 95 93 92 86 82 83 85 75 75 64 61 71 99 96 95 70 58 59 68 69 70 70 70 69 69 71 73 76 74 75 76 76 76 75 74 76
60 73 83 83 79 79 85 89 95 99 94 98 94 94 94 95 94 88 87 91 78 73 73 73 48 47 58 65 64 65 69 75 75 74 76 79 80 85 82 76 79 83 83 84 84 83 80 80 88
56 60 77 83 82 79 79 79 84 94 100 100 99 102 103 102 101 93 91 93 87 84 81 82 88 83 77 69 73 90 91 88 85 81 83 84 95 88 79 79 88 95 90 92 94 93 82 93 95
56 54 65 83 84 81 77 74 81 83 84 92 100 101 99 98 98 99 96 92 90 91 93 87 93 99 107 114 113 109 103 100 91 88 86 82 77 81 71 74 58 71 78 82 91 97 77 61 69
56 55 56 75 82 82 76 69 76 74 75 78 85 94 99 101 97 96 93 91 93 93 90 91 97 100 106 109 111 110 105 100 97 99 96 93 94 90 82 68 66 58 66 70 69 77 83 88 99
52 56 51 62 80 82 77 72 73 68 67 76 77 79 82 87 92 97 96 92 92 94 91 90 96 99 106 106 106 103 101 102 100 99 104 104 99 94 93 87 82 72 71 64 62 73 86 96 88
48 52 52 53 74 81 78 73 69 69 65 65 69 74 75 77 79 79 84 93 96 93 94 96 97 96 99 99 99 96 95 90 88 87 89 91 91 91 90 91 91 98 98 103 107 106 97 89 87
46 48 53 50 66 77 78 74 71 70 67 65 63 64 68 72 73 70 72 77 76 81 90 96 99 100 97 92 92 89 88 86 83 84 88 89 90 89 89 90 92 92 92 94 85 66 70 68 73
48 49 51 53 51 72 80 75 71 70 70 69 63 65 66 67 66 60 67 69 67 68 69 70 74 75 78 79 78 82 81 82 84 82 79 80 82 86 88 90 91 94 96 95 88 87 85 85 78
52 51 51 53 52 56 77 75 74 73 71 72 69 68 70 67 61 62 62 60 60 61 61 61 63 65 66 67 71 71 70 70 70 72 74 78 81 84 87 86 90 94 94 92 87 100 98 89 79
56 52 51 54 54 47 55 81 75 79 75 76 74 71 73 68 66 66 61 58 59 59 61 62 62 64 64 66 66 66 66 69 72 73 75 78 80 83 84 85 83 85 87 84 84 83 90 89 85
57 54 51 51 51 45 50 61 84 78 80 80 77 75 73 74 71 69 66 64 64 65 66 66 68 67 66 65 64 65 67 68 70 72 75 77 78 80 76 73 73 77 82 83 79 81 85 90 85
56 54 47 46 48 48 54 45 58 81 89 83 80 75 74 77 76 74 72 71 69 70 70 70 70 67 65 65 65 66 67 68 70 73 74 75 75 69 65 63 64 68 71 82 83 82 81 85 83
52 50 48 51 48 46 47 47 47 50 71 86 87 85 83 82 81 81 78 76 74 73 72 71 69 67 66 67 67 66 68 70 71 70 73 71 69 60 54 49 47 48 55 69 80 86 87 82 86
49 49 53 50 43 42 44 42 47 48 53 67 78 79 87 84 84 83 80 78 76 72 71 70 70 71 69 68 68 68 69 70 68 67 69 67 62 56 50 43 39 35 36 48 76 94 91 81 84
46 47 44 50 40 41 43 40 42 46 51 52 60 68 75 74 78 82 77 75 73 71 70 70 72 73 72 72 68 70 71 66 65 65 63 65 59 56 51 45 42 40 37 34 41 67 72 81 95
44 45 44 45 43 40 45 42 37 46 37 49 46 63 64 67 72 69 70 76 72 72 72 71 71 72 71 69 72 70 65 62 62 62 63 62 58 57 55 52 49 47 45 43 42 42 50 67 78

GFSSGP_250_spd_111.txt.gz
Wind_Speed
65 64 58 53 44 43 43 45 45 47 43 38 38 38 40 28 24 20 29 35 30 28 24 22 22 22 21 21 22 26 29 28 29 28 27 25 23 22 24 24 20 23 23 23 25 26 25 21 18
66 66 65 59 52 48 48 52 50 53 47 45 46 43 42 30 26 27 35 38 28 25 24 24 22 21 21 21 23 24 23 24 26 26 27 25 25 24 21 22 20 21 22 22 20 18 18 18 16
75 69 65 64 59 54 53 56 61 52 47 49 49 49 45 34 32 22 39 37 34 34 29 27 27 26 26 25 25 26 26 27 26 24 22 23 23 23 24 21 19 18 19 21 21 20 18 18 19
77 73 73 70 64 63 60 60 62 58 51 50 54 56 50 43 38 44 42 39 39 37 36 34 32 33 31 31 31 32 32 30 30 28 26 23 24 24 26 27 26 24 22 21 23 27 30 30 27
79 75 74 71 68 62 61 64 67 64 60 54 50 57 53 50 49 50 44 43 40 41 40 40 39 37 35 35 36 35 35 35 36 35 33 32 29 28 27 28 29 29 30 29 29 30 31 33 35
78 78 74 73 75 73 66 69 74 69 68 60 53 56 59 53 53 53 49 48 47 45 46 45 44 44 41 39 39 40 40 40 40 39 38 38 36 36 35 34 33 33 33 33 34 34 35 35 34
87 88 83 77 75 75 74 78 79 72 73 69 61 54 57 54 55 56 57 52 53 52 50 50 51 49 46 46 47 47 48 47 46 44 42 42 41 41 40 41 40 40 40 40 40 40 39 40 41
93 91 85 85 86 83 84 86 81 80 78 72 70 61 62 57 54 57 65 57 55 57 57 56 53 51 53 54 55 53 51 51 50 50 49 47 47 46 45 45 44 44 45 45 45 44 45 44 44
103 97 89 89 90 91 97 99 88 80 82 75 74 76 69 64 60 59 65 60 55 59 61 57 59 59 59 59 60 59 59 58 57 55 53 51 50 50 49 51 51 50 49 51 52 51 51 49 48
102 100 98 101 100 97 104 103 96 87 82 84 84 81 82 71 62 63 67 71 60 59 63 58 59 62 63 64 65 63 62 59 61 62 61 58 55 55 55 55 55 53 52 53 52 53 53 54 53
103 97 101 100 107 106 108 105 97 90 83 82 86 89 88 81 70 71 72 72 71 57 65 65 61 55 67 66 68 69 66 69 71 67 64 61 58 56 55 55 54 56 57 57 57 58 56 56 57
86 92 101 97 104 106 102 103 98 96 89 95 96 94 92 87 83 81 79 78 66 61 55 67 68 68 61 65 70 67 65 79 77 75 72 66 59 57 57 60 59 56 57 58 60 59 61 63 63
68 76 83 93 96 102 104 98 98 96 94 96 98 100 93 92 88 86 87 78 71 67 62 69 65 59 59 42 42 52 38 46 46 58 73 73 70 61 55 59 59 61 62 63 65 66 65 67 67
62 66 70 77 85 94 97 95 99 95 95 96 96 98 98 95 93 90 90 80 73 66 71 71 68 70 75 65 51 52 59 70 70 73 66 71 72 66 70 63 65 62 64 74 82 80 77 77 79
64 60 62 64 73 81 89 88 83 94 100 98 98 99 97 93 96 95 96 90 82 76 75 81 80 77 81 83 82 82 78 77 80 82 70 64 58 48 55 66 69 71 73 75 71 72 70 74 74
53 60 57 62 69 72 85 79 85 90 92 99 99 96 95 96 96 98 95 93 85 80 87 85 80 81 85 90 88 83 79 75 72 68 48 44 42 62 74 75 71 77 74 48 50 55 67 70 66
49 49 54 63 64 69 77 76 83 90 89 87 91 94 99 97 99 100 99 95 93 88 89 87 83 80 83 86 85 84 84 88 58 64 59 63 70 89 94 84 84 71 50 66 72 74 68 81 59
56 49 48 50 64 64 66 68 79 87 87 83 78 81 91 99 98 100 101 96 95 94 90 88 85 84 88 91 86 87 89 91 102 86 79 88 103 107 104 97 87 87 88 92 86 84 86 82 65
58 49 48 49 55 61 60 63 74 83 84 82 77 75 77 85 96 100 94 95 94 92 89 88 90 92 96 92 91 95 96 94 99 101 102 105 105 106 106 105 100 94 92 93 92 97 83 84 74
57 50 48 49 49 55 57 60 64 78 82 81 77 74 73 74 79 88 97 94 90 89 91 91 89 93 91 94 95 96 98 101 101 103 103 102 103 103 98 92 86 86 86 83 87 87 88 94 99
59 55 49 51 48 50 56 58 55 69 77 79 76 70 70 68 71 74 76 82 87 95 97 97 100 98 96 98 97 99 96 100 103 101 104 103 96 94 88 76 73 75 74 78 80 85 88 91 101
60 58 53 55 48 47 51 52 53 61 74 76 76 70 69 70 69 66 66 67 71 77 79 86 93 100 101 98 95 98 100 100 96 93 92 93 92 94 86 83 86 90 94 92 92 94 92 94 97
58 58 55 54 48 44 46 50 49 53 68 73 75 74 70 70 65 59 59 60 65 70 72 72 74 76 79 85 93 98 100 94 88 85 83 85 83 81 86 92 96 94 93 91 90 92 96 98 100
62 61 58 54 50 42 45 47 45 45 62 71 76 76 72 70 64 60 63 66 63 64 65 66 68 69 68 69 71 71 73 75 78 81 81 82 82 81 82 82 84 83 82 84 88 93 95 98 100
64 59 55 53 49 44 45 46 40 49 47 69 76 78 69 68 66 66 69 65 61 61 59 59 60 62 64 64 64 63 63 66 68 69 71 72 73 73 72 73 77 79 80 84 84 84 81 83 85
64 62 58 56 51 53 52 40 47 55 46 59 76 70 68 69 70 68 69 68 67 65 63 60 59 60 61 62 62 62 62 63 66 69 69 71 71 70 70 72 74 75 79 80 77 76 75 72 72
60 63 61 60 53 48 44 40 50 49 47 46 51 71 71 70 72 72 69 69 70 70 68 66 63 63 64 65 66 66 64 66 68 68 68 67 69 70 71 72 73 76 78 74 68 65 60 58 64
56 58 56 55 48 42 41 40 46 41 41 44 45 49 75 73 73 72 70 70 71 71 69 69 70 69 68 69 70 70 69 68 68 67 66 66 70 71 72 73 72 74 74 69 68 63 59 52 48
60 56 54 53 44 38 39 36 36 35 37 42 42 43 45 58 81 75 74 74 72 73 74 75 75 74 74 74 75 73 71 69 68 67 67 69 70 72 73 72 71 70 68 68 66 64 62 59 57
58 55 52 49 44 41 39 40 41 36 34 40 42 44 47 47 50 58 80 87 79 82 83 83 81 79 78 77 75 74 71 68 68 67 69 70 70 73 71 71 68 66 67 67 65 63 64 66 64

GFSSGP_250_spd_114.txt.gz
Wind_Speed
52 51 48 47 51 48 49 46 40 40 38 36 35 35 34 27 22 21 28 32 36 33 30 29 27 23 22 20 21 19 18 17 17 17 18 22 20 16 15 14 18 16 14 15 16 17 17 17 16
59 59 58 58 57 55 56 58 51 45 41 41 41 41 41 34 31 24 31 31 31 27 27 27 24 23 22 20 20 19 18 18 17 19 19 17 17 16 15 13 13 14 12 11 13 15 17 21 22
64 66 65 62 61 53 56 61 66 54 48 45 44 43 44 41 39 33 35 34 36 33 29 29 27 25 25 25 23 24 24 24 23 23 24 22 19 18 17 17 15 18 16 16 16 16 18 22 26
67 66 67 64 56 60 60 63 67 63 58 52 46 47 44 45 43 39 43 40 31 34 33 34 34 34 32 30 30 30 30 30 30 30 28 26 26 24 22 21 20 20 21 20 22 22 22 23 24
70 66 64 62 67 67 69 71 76 71 66 61 54 46 47 46 46 49 50 48 47 39 38 40 39 37 38 38 37 37 35 35 35 35 34 33 31 31 30 28 28 28 28 28 27 27 27 27 28
83 78 71 66 63 71 73 78 81 75 72 68 63 55 49 47 48 51 55 55 53 50 48 46 44 42 41 41 43 44 43 43 41 40 40 40 39 38 38 35 34 34 35 34 33 32 33 33 34
88 85 79 78 74 71 76 86 81 79 79 72 67 61 51 50 51 55 59 60 58 53 52 52 50 48 48 47 48 49 48 47 45 44 44 44 44 43 42 43 42 41 39 41 38 37 38 39 39
99 92 89 87 83 77 86 84 83 78 80 80 73 67 59 50 54 60 60 60 62 59 57 56 55 53 51 51 51 52 51 49 49 49 49 50 50 49 48 47 48 47 48 47 47 46 46 45 44
102 96 96 96 93 94 95 90 89 85 84 86 82 72 66 60 59 63 63 66 64 60 61 57 56 56 54 55 54 54 54 54 55 55 55 54 56 56 56 54 53 53 50 48 49 48 47 47 47
107 104 103 106 107 101 105 101 94 91 91 87 87 81 72 69 65 65 71 71 67 61 60 61 58 58 57 57 59 59 58 57 58 59 59 59 58 59 59 58 57 55 54 53 52 50 50 50 49
114 111 111 111 110 109 113 109 105 100 93 93 90 90 83 78 78 74 72 75 67 69 67 61 57 64 66 61 61 61 61 63 66 57 60 65 66 64 63 59 59 60 59 55 55 49 52 54 53
106 105 105 108 109 114 110 114 114 110 105 101 92 91 89 88 90 85 77 77 75 72 67 63 56 50 66 67 67 64 62 60 61 60 65 60 54 53 55 61 67 66 59 62 54 49 54 59 62
64 75 85 93 106 109 111 109 113 110 109 105 103 99 99 102 99 96 89 80 79 78 73 70 72 72 65 59 46 62 67 66 57 61 51 55 45 37 43 44 56 59 64 64 58 56 60 59 64
59 64 68 74 82 90 102 102 103 104 108 106 105 104 108 110 108 103 95 88 83 84 81 78 76 76 69 63 64 66 64 50 69 60 59 59 50 58 67 69 71 67 74 68 68 61 59 65 68
49 48 51 57 66 72 82 93 91 93 103 108 106 105 104 105 106 102 97 94 91 91 88 84 84 81 76 71 62 63 71 84 69 71 61 62 74 71 74 69 73 74 63 62 64 65 60 65 67
53 47 45 48 57 66 76 66 80 85 101 98 105 105 106 103 102 106 103 98 93 93 94 91 88 84 80 81 84 85 77 78 76 69 70 83 83 82 81 81 72 62 55 60 67 75 79 88 79
55 54 61 59 56 54 59 58 68 77 86 95 97 100 103 103 106 105 102 98 94 92 91 93 91 88 83 84 90 88 93 85 85 89 90 89 91 89 81 78 70 60 62 64 74 86 99 98 87
66 70 69 57 59 53 49 52 61 68 72 78 89 92 95 98 97 103 102 98 95 95 93 93 94 91 90 89 91 91 92 91 89 89 88 86 86 81 80 77 75 73 68 72 81 98 99 99 90
76 67 60 59 63 56 49 45 53 58 64 68 75 84 88 93 94 94 98 101 95 97 94 92 92 92 93 93 94 93 94 96 94 95 94 92 91 91 89 87 84 87 91 99 104 104 102 102 92
68 68 62 63 60 58 57 44 46 53 56 63 67 75 82 84 91 88 85 86 96 101 97 93 92 97 95 94 94 95 94 95 99 99 99 100 99 99 96 91 90 92 101 104 104 103 102 89 82
63 58 61 60 63 55 56 42 41 48 52 55 60 67 74 79 82 83 81 76 75 77 83 93 90 94 92 95 96 95 99 100 99 98 99 97 97 94 96 95 99 99 102 104 104 101 88 79 80
68 65 64 62 65 56 55 45 42 46 48 52 55 63 63 71 76 74 73 72 70 70 73 76 85 88 87 86 89 94 96 97 98 99 100 98 96 98 99 99 97 99 100 97 95 93 89 86 83
64 73 70 65 59 58 48 44 40 41 42 46 52 57 57 61 67 70 68 68 66 63 65 66 66 68 80 71 80 74 80 82 88 91 92 91 92 94 97 101 99 95 92 86 87 86 84 82 83
77 73 68 65 59 52 46 42 39 41 45 45 51 55 52 56 64 66 70 67 66 66 62 61 62 60 61 69 70 74 74 75 78 82 86 93 94 94 92 90 89 87 82 77 79 80 80 78 80
72 71 65 64 55 43 47 44 43 48 48 47 52 46 46 52 63 67 65 65 65 66 63 61 61 65 66 69 75 74 76 79 81 83 85 84 83 84 84 82 81 78 75 74 74 74 77 78 79
68 68 64 62 53 50 52 48 45 55 48 46 46 44 45 47 60 67 69 67 66 66 65 64 66 66 67 68 69 72 73 74 76 76 75 74 74 74 74 74 73 72 73 74 75 75 76 77 78
63 62 64 68 61 57 53 48 52 43 42 39 41 44 38 45 55 60 62 66 66 68 67 67 67 67 66 66 65 63 64 67 68 67 67 67 67 67 67 68 69 71 72 72 72 73 75 76 79
65 62 66 62 60 54 51 52 51 45 42 39 41 43 40 40 49 59 59 61 64 66 67 68 68 68 68 67 67 65 64 64 64 65 65 66 67 69 69 69 70 71 71 71 71 72 76 78 81
59 61 62 60 59 53 49 49 51 44 39 39 41 41 42 40 40 50 62 63 61 64 66 68 69 70 70 70 69 69 69 68 68 68 69 70 70 71 70 69 69 70 72 73 73 73 76 76 77
60 60 55 55 52 47 48 48 45 41 38 37 35 35 39 40 42 46 49 60 64 66 72 73 72 71 72 72 73 73 72 72 72 72 74 75 74 72 70 69 69 71 72 74 76 77 73 74 72

GFSSGP_250_spd_117.txt.gz
Wind_Speed
46 47 43 43 42 48 47 48 48 38 36 33 31 32 28 26 24 29 32 33 34 34 34 33 34 33 33 29 26 21 18 16 17 16 15 14 13 16 15 13 12 10 9 10 8 8 10 11 15
51 52 49 47 45 48 55 56 57 49 40 38 36 34 35 33 30 28 27 30 31 29 27 32 34 33 32 26 25 21 19 18 18 18 16 18 18 17 16 16 18 14 10 10 11 11 11 13 16
60 57 57 50 51 51 56 64 61 59 56 50 44 39 39 38 37 36 38 37 34 32 31 29 33 31 28 26 26 25 24 24 23 24 23 22 22 23 22 21 20 20 20 17 17 18 18 18 17
61 58 67 56 54 56 63 70 68 64 59 59 54 47 45 41 41 40 44 45 42 40 38 34 38 33 31 31 31 28 29 30 31 31 31 30 28 29 29 29 29 29 28 26 24 24 23 24 25
68 61 60 57 59 64 67 70 71 71 66 61 58 54 46 48 43 45 47 49 49 47 45 40 35 39 37 35 36 37 37 38 38 38 37 36 35 34 34 34 35 35 34 33 33 33 32 30 28
75 67 65 60 68 70 70 78 69 71 67 67 62 61 54 53 50 48 51 56 52 51 50 50 48 44 41 41 41 40 39 41 42 41 40 39 39 40 39 40 41 42 42 42 40 39 38 37 34
81 78 74 74 79 78 82 81 79 72 70 69 70 66 60 59 56 52 54 58 55 54 54 54 53 52 50 48 47 47 46 47 47 46 45 43 43 43 44 45 44 45 44 44 45 45 45 47 46
92 86 82 86 86 88 91 83 82 82 76 74 71 67 66 67 62 59 57 63 59 59 56 53 54 57 54 51 53 53 52 51 52 50 49 49 47 47 48 48 48 49 49 49 48 48 49 49 49
99 97 94 94 92 95 93 89 90 88 84 82 80 78 75 73 69 63 61 65 67 63 60 58 57 57 58 57 56 55 56 57 54 54 53 54 53 52 53 52 52 53 54 54 53 53 53 53 52
99 99 102 102 103 107 101 96 96 94 94 90 89 84 81 80 74 72 70 66 70 68 65 61 59 58 59 59 55 57 58 58 60 58 57 56 56 57 57 57 53 57 59 60 58 55 56 55 55
104 101 106 108 109 110 108 106 104 100 98 99 96 96 88 85 78 74 71 72 71 74 70 66 64 62 62 62 58 59 61 64 64 63 59 58 58 59 58 55 58 61 58 59 62 61 62 62 60
106 108 112 114 113 115 116 113 106 105 107 105 106 102 100 98 96 91 79 78 79 78 75 73 68 65 65 64 61 58 61 63 65 56 56 60 64 62 62 65 61 56 62 60 50 51 53 58 62
85 93 98 104 116 114 117 119 119 113 113 112 113 110 111 110 105 102 98 91 87 85 81 80 76 71 70 69 66 62 56 52 51 60 55 52 54 61 62 59 61 60 47 46 56 56 58 60 60
65 78 80 85 95 96 100 108 113 114 119 116 112 113 116 117 112 111 108 104 99 94 90 87 82 81 76 76 73 68 66 65 69 68 62 57 54 54 62 67 63 61 64 61 67 68 67 74 66
64 58 61 67 72 78 86 86 89 96 113 116 119 112 112 114 117 115 112 109 106 102 95 92 88 86 85 83 82 82 79 80 78 71 65 63 72 65 78 72 65 60 68 67 74 71 69 61 67
61 66 58 53 58 66 73 64 69 83 94 99 103 97 102 107 114 114 111 111 110 107 103 96 93 91 89 89 87 89 85 84 84 78 75 74 79 69 66 72 70 71 75 77 75 80 76 72 70
51 51 62 64 69 69 63 54 64 66 70 78 83 89 92 97 104 105 109 110 109 106 104 106 102 97 93 92 92 95 90 88 86 81 83 81 78 74 68 68 71 68 72 79 84 78 82 72 68
65 69 62 67 72 71 68 60 59 57 53 58 69 75 85 89 91 97 99 101 103 103 104 103 104 100 97 95 96 95 92 89 88 88 84 88 86 87 87 92 87 89 91 93 85 80 75 75 78
68 66 68 66 66 68 68 62 63 64 60 56 50 58 71 78 85 86 90 96 97 97 97 100 101 99 95 99 99 98 95 92 92 91 94 94 94 95 93 95 93 95 92 94 93 91 89 91 89
69 64 57 65 75 73 64 61 66 65 62 55 47 48 56 67 76 76 79 85 90 93 93 94 100 99 100 99 99 98 94 93 94 93 94 95 98 98 100 99 99 101 100 97 96 95 96 97 91
71 67 63 62 80 67 61 56 60 62 61 56 49 44 47 53 61 68 70 74 82 86 88 89 91 96 103 101 97 96 96 98 98 97 95 98 101 103 104 102 103 102 100 99 95 95 91 91 93
73 71 71 73 78 67 69 56 58 60 60 56 49 43 46 47 52 59 65 68 73 77 81 86 89 87 88 92 95 95 96 98 100 97 99 100 97 100 100 99 101 101 102 101 101 91 93 94 96
81 83 81 81 78 76 71 60 58 57 56 52 46 47 48 45 49 53 56 63 67 72 75 80 85 86 82 79 81 91 99 93 98 98 96 95 99 99 98 99 96 95 94 89 89 89 90 90 89
89 90 87 84 77 69 64 57 55 57 57 49 47 47 45 46 45 49 48 54 60 64 71 73 75 79 80 72 69 74 76 74 86 91 89 88 90 92 96 94 91 88 90 92 89 88 85 80 79
89 90 85 81 73 59 65 57 49 55 55 49 48 45 42 46 42 43 42 41 50 54 59 59 62 59 59 67 60 58 66 69 69 75 79 82 81 81 81 81 82 84 85 84 85 82 79 76 74
93 94 89 82 75 64 67 58 49 54 55 53 47 38 44 42 38 40 39 44 52 58 54 61 55 54 51 60 57 57 60 63 66 66 68 72 72 72 75 77 77 78 77 76 76 74 73 73 72
95 95 83 84 79 71 66 62 56 54 55 49 40 37 41 40 38 39 41 53 52 58 57 59 59 57 58 62 61 65 61 64 65 66 69 68 70 72 73 73 73 73 72 71 70 70 71 72 74
97 88 90 84 75 68 62 59 55 57 53 45 44 42 42 40 41 41 40 47 54 59 62 60 64 64 65 66 66 68 68 69 68 68 67 66 67 68 69 70 71 71 70 68 68 70 73 75 77
90 85 83 77 70 64 57 57 54 57 50 48 46 43 41 42 41 40 44 49 56 60 64 68 69 71 70 70 68 68 68 67 68 68 69 68 68 68 69 70 70 71 70 70 70 72 73 75 77
77 74 71 63 59 58 58 57 53 55 49 50 49 45 44 43 43 44 45 44 47 55 60 63 69 71 71 71 69 69 69 70 71 71 71 72 72 72 73 74 75 74 74 73 73 74 73 73 74

GFSSGP_250_spd_123.txt.gz
Wind_Speed
44 42 40 38 37 35 38 39 33 26 28 26 22 23 21 21 21 23 24 28 30 31 30 30 28 28 29 31 30 33 33 28 27 26 24 21 19 17 19 20 22 22 20 18 17 20 22 22 22
51 48 44 44 39 40 44 45 42 35 30 32 29 26 25 23 22 24 26 28 29 32 34 36 35 32 31 31 30 30 30 29 28 23 23 21 21 21 22 22 24 24 26 27 27 25 25 28 29
56 55 54 47 44 45 51 53 49 44 37 36 36 38 32 30 28 26 27 30 32 31 30 31 30 31 31 31 31 30 28 28 27 26 26 25 25 26 27 27 28 29 30 31 31 31 31 30 31
60 59 57 54 54 54 56 58 56 51 45 46 40 43 43 43 36 35 35 36 37 38 38 36 34 35 36 36 36 34 28 31 32 29 29 30 31 32 33 34 36 37 35 35 35 35 34 36 34
66 62 60 59 62 57 60 60 59 58 51 47 49 44 47 46 47 44 44 44 41 41 40 42 41 42 42 43 41 39 39 38 32 32 34 36 37 39 40 40 40 40 41 40 39 39 39 38 37
70 69 64 64 71 69 69 68 59 55 57 53 51 52 51 53 54 53 50 48 50 49 49 46 46 44 42 42 44 44 43 41 42 39 38 40 43 44 43 42 42 41 42 41 41 41 41 42 42
74 74 71 71 73 72 75 72 67 66 63 63 58 58 55 56 58 61 58 53 54 55 53 48 48 47 47 46 45 45 47 46 46 47 47 49 47 47 46 45 44 46 46 43 42 43 45 45 46
82 79 75 77 80 83 79 73 73 70 72 66 63 61 57 60 63 65 63 60 59 60 58 56 56 54 54 54 51 49 49 49 49 49 51 51 50 50 49 50 49 47 48 48 46 45 47 48 49
89 82 84 86 89 94 88 83 80 76 78 77 71 69 68 68 66 69 70 66 64 63 62 62 63 64 60 59 56 53 51 52 53 53 53 55 54 52 52 48 47 49 51 51 50 47 47 47 49
93 93 92 94 97 99 93 89 86 83 79 79 78 78 77 74 76 72 71 74 71 70 69 71 70 68 64 59 57 59 58 56 56 55 57 58 59 57 53 54 54 52 52 53 54 53 53 55 56
98 96 101 101 105 104 97 94 91 89 88 86 87 86 85 83 82 81 82 79 79 78 76 79 76 76 72 68 68 67 67 69 70 68 61 59 60 61 61 60 58 58 55 57 59 58 53 53 55
97 99 101 104 105 104 105 104 97 96 99 95 92 93 94 92 89 87 87 85 85 85 83 85 85 82 81 79 77 75 74 71 70 69 63 61 63 66 66 65 65 64 65 64 63 60 53 54 53
92 94 99 105 105 104 104 102 101 97 99 98 95 96 98 100 97 95 93 92 91 91 91 91 92 88 87 87 84 83 80 74 75 76 78 77 75 71 71 70 68 69 70 70 67 63 64 68 66
79 85 91 97 101 103 104 104 104 102 101 99 95 92 92 95 103 101 98 97 96 98 100 99 100 98 95 92 90 87 86 85 81 78 78 78 81 77 75 76 75 75 76 76 73 72 73 75 72
75 76 78 82 88 94 98 101 100 100 104 106 109 105 102 101 100 103 105 106 104 103 105 104 105 103 102 97 95 96 97 91 90 90 91 88 86 82 79 82 81 78 78 80 80 81 75 72 74
76 75 73 71 75 78 84 76 79 80 87 86 90 97 108 111 109 109 109 109 108 109 112 108 108 111 108 103 98 99 100 100 100 97 95 94 92 85 83 84 83 82 83 80 80 81 79 79 67
74 69 65 69 71 74 70 66 68 72 74 75 77 76 80 87 88 93 98 101 105 109 110 110 110 110 110 110 105 103 103 102 101 100 99 97 95 92 89 86 86 88 87 87 84 85 88 81 66
70 75 71 72 71 75 72 67 69 71 71 70 72 70 67 66 68 74 79 83 86 91 96 101 103 105 105 105 109 110 105 106 104 102 95 97 91 89 87 85 86 83 77 69 70 75 76 70 74
85 84 83 82 80 80 79 78 74 77 74 69 64 63 66 65 65 66 70 73 78 82 85 88 92 94 96 100 99 102 102 102 101 101 97 88 86 86 79 69 63 72 77 81 68 63 71 75 77
89 88 85 85 85 83 81 79 77 77 75 72 71 69 64 67 68 69 66 61 66 68 72 75 80 83 85 86 86 89 92 95 97 96 94 89 89 87 82 59 77 91 76 76 65 63 78 81 83
91 90 90 90 89 85 82 81 79 77 75 70 66 69 69 67 67 66 70 67 65 65 66 66 68 69 67 66 73 78 82 82 83 81 78 83 85 88 84 77 66 70 72 71 63 65 68 86 79
96 94 95 95 93 90 89 84 81 76 70 65 64 63 61 64 64 62 62 66 70 72 70 68 64 64 62 61 61 62 66 69 71 72 72 73 78 75 78 89 83 87 86 76 73 70 68 70 78
97 101 99 100 98 95 92 87 77 75 66 63 63 60 58 54 52 59 59 62 67 68 66 63 60 55 56 54 52 51 53 54 59 60 62 66 71 74 76 77 83 93 94 90 74 78 86 87 93
112 107 109 108 104 102 87 87 76 71 65 66 62 60 57 52 49 50 58 59 59 57 58 56 56 53 53 45 39 39 45 46 48 53 55 60 65 70 76 78 87 94 97 84 88 98 104 108 109
117 116 113 112 108 88 92 90 71 70 67 67 63 61 57 56 54 50 53 59 55 54 51 50 46 43 26 14 18 31 37 40 41 41 42 48 57 62 69 72 77 83 87 96 102 103 107 110 107
115 111 111 106 96 83 87 83 73 66 68 65 63 60 60 58 57 54 51 53 53 51 47 44 40 27 20 18 25 47 42 44 42 48 40 43 52 58 63 69 74 77 80 82 84 85 84 84 84
113 117 111 113 105 100 91 85 78 75 71 72 67 62 59 62 61 58 52 49 49 49 46 41 37 30 29 35 30 53 42 41 44 46 50 50 49 54 55 60 65 71 76 77 78 77 75 75 76
104 104 117 115 109 104 90 86 82 75 72 72 68 63 62 62 61 58 53 49 49 50 45 42 39 38 40 38 53 67 51 48 52 54 53 52 54 55 55 59 62 66 68 71 73 75 75 76 74
87 105 111 113 110 104 95 87 83 76 74 73 67 64 63 62 58 55 52 50 49 50 47 44 41 49 52 44 50 56 58 62 65 59 56 60 58 58 56 59 63 66 67 69 73 74 75 75 74
74 89 101 102 100 98 95 90 87 78 76 74 70 65 63 61 54 51 55 51 50 50 49 47 44 53 64 55 60 66 64 69 66 61 61 60 63 66 66 66 67 70 73 74 75 75 75 77 79